Time,TemperatureF,DewpointF,PressureIn,WindDirection,WindDirectionDegrees,WindSpeedMPH,WindSpeedGustMPH,Humidity,HourlyPrecipIn,Conditions,Clouds,dailyrainin,SoftwareType,DateUTC
2013-08-15 00:00:00,56.0,48.2,30.12,SSW,192,0.0,0.0,75,0.00,CLR,,0.00,WeatherDisplay:10.37,2013-08-15 05:00:00,
2013-08-15 00:02:00,56.0,47.8,30.12,SSW,192,0.0,0.0,74,0.00,CLR,,0.00,WeatherDisplay:10.37,2013-08-15 05:02:00,
2013-08-15 00:04:00,55.9,48.1,30.12,SSW,192,0.0,0.0,75,0.00,CLR,,0.00,WeatherDisplay:10.37,2013-08-15 05:04:00,
2013-08-15 00:05:00,55.8,48.3,30.12,SSW,192,0.0,0.0,76,0.00,CLR,,0.00,WeatherDisplay:10.37,2013-08-15 05:05:00,
2013-08-15 00:07:00,55.8,48.3,30.12,SSW,192,0.0,0.0,76,0.00,CLR,,0.00,WeatherDisplay:10.37,2013-08-15 05:07:00,
2013-08-15 00:08:00,55.6,48.2,30.12,SSW,192,0.0,0.0,76,0.00,CLR,,0.00,WeatherDisplay:10.37,2013-08-15 05:08:00,
2013-08-15 00:09:00,55.7,48.2,30.12,SSW,192,0.0,0.0,76,0.00,CLR,,0.00,WeatherDisplay:10.37,2013-08-15 05:09:00,
2013-08-15 00:10:00,55.6,48.2,30.12,SSW,192,0.0,0.0,76,0.00,CLR,,0.00,WeatherDisplay:10.37,2013-08-15 05:10:00,
2013-08-15 00:12:00,55.5,48.4,30.12,SSW,192,0.0,0.0,77,0.00,CLR,,0.00,WeatherDisplay:10.37,2013-08-15 05:12:00,
2013-08-15 00:14:00,55.5,48.4,30.12,SSW,192,0.0,0.0,77,0.00,CLR,,0.00,WeatherDisplay:10.37,2013-08-15 05:14:00,
2013-08-15 00:16:00,55.3,48.2,30.12,SSW,192,0.0,0.0,77,0.00,CLR,,0.00,WeatherDisplay:10.37,2013-08-15 05:16:00,
2013-08-15 00:17:00,55.3,48.2,30.12,SSW,192,0.0,0.0,77,0.00,CLR,,0.00,WeatherDisplay:10.37,2013-08-15 05:17:00,
2013-08-15 00:19:00,55.3,48.2,30.12,SSW,192,0.0,0.0,77,0.00,CLR,,0.00,WeatherDisplay:10.37,2013-08-15 05:19:00,
2013-08-15 00:21:00,55.2,48.1,30.12,SSW,192,0.0,0.0,77,0.00,CLR,,0.00,WeatherDisplay:10.37,2013-08-15 05:21:00,
2013-08-15 00:22:00,55.3,48.2,30.12,SSW,192,0.0,0.0,77,0.00,CLR,,0.00,WeatherDisplay:10.37,2013-08-15 05:22:00,
2013-08-15 00:24:00,55.2,48.1,30.12,SSW,192,0.0,0.0,77,0.00,CLR,,0.00,WeatherDisplay:10.37,2013-08-15 05:24:00,
2013-08-15 00:26:00,55.1,48.0,30.12,SSW,192,0.0,0.0,77,0.00,CLR,,0.00,WeatherDisplay:10.37,2013-08-15 05:26:00,
2013-08-15 00:28:00,55.1,48.0,30.12,SSW,192,0.0,0.0,77,0.00,CLR,,0.00,WeatherDisplay:10.37,2013-08-15 05:28:00,
2013-08-15 00:29:00,55.0,47.9,30.12,SSW,192,0.0,0.0,77,0.00,CLR,,0.00,WeatherDisplay:10.37,2013-08-15 05:29:00,
2013-08-15 00:31:00,55.1,48.0,30.12,SSW,192,0.0,0.0,77,0.00,CLR,,0.00,WeatherDisplay:10.37,2013-08-15 05:31:00,
2013-08-15 00:33:00,55.0,47.9,30.12,SSW,192,0.0,0.0,77,0.00,CLR,,0.00,WeatherDisplay:10.37,2013-08-15 05:33:00,
2013-08-15 00:34:00,54.9,47.8,30.12,SSW,192,0.0,0.0,77,0.00,CLR,,0.00,WeatherDisplay:10.37,2013-08-15 05:34:00,
2013-08-15 00:37:00,54.9,47.8,30.12,SSW,192,0.0,0.0,77,0.00,CLR,,0.00,WeatherDisplay:10.37,2013-08-15 05:37:00,
2013-08-15 00:38:00,54.9,47.8,30.12,SSW,192,0.0,0.0,77,0.00,CLR,,0.00,WeatherDisplay:10.37,2013-08-15 05:38:00,
2013-08-15 00:39:00,54.9,47.8,30.12,SSW,192,0.0,0.0,77,0.00,CLR,,0.00,WeatherDisplay:10.37,2013-08-15 05:39:00,
2013-08-15 00:40:00,55.0,48.3,30.12,SSW,192,0.0,0.0,78,0.00,CLR,,0.00,WeatherDisplay:10.37,2013-08-15 05:40:00,
2013-08-15 00:42:00,54.9,48.2,30.12,SSW,192,0.0,0.0,78,0.00,CLR,,0.00,WeatherDisplay:10.37,2013-08-15 05:42:00,
2013-08-15 00:43:00,55.0,48.3,30.12,SSW,192,0.0,0.0,78,0.00,CLR,,0.00,WeatherDisplay:10.37,2013-08-15 05:43:00,
2013-08-15 00:44:00,55.0,48.3,30.12,SSW,192,0.0,0.0,78,0.00,CLR,,0.00,WeatherDisplay:10.37,2013-08-15 05:44:00,
2013-08-15 00:45:00,55.0,48.3,30.12,SSW,192,0.0,0.0,78,0.00,CLR,,0.00,WeatherDisplay:10.37,2013-08-15 05:45:00,
2013-08-15 00:47:00,55.0,48.3,30.12,SSW,192,0.0,0.0,78,0.00,CLR,,0.00,WeatherDisplay:10.37,2013-08-15 05:47:00,
2013-08-15 00:48:00,55.0,48.3,30.12,SSW,192,0.0,0.0,78,0.00,CLR,,0.00,WeatherDisplay:10.37,2013-08-15 05:48:00,
2013-08-15 00:49:00,55.0,48.3,30.12,SSW,192,0.0,0.0,78,0.00,CLR,,0.00,WeatherDisplay:10.37,2013-08-15 05:49:00,
2013-08-15 00:50:00,55.1,48.4,30.12,SSW,192,0.0,0.0,78,0.00,CLR,,0.00,WeatherDisplay:10.37,2013-08-15 05:50:00,
2013-08-15 00:51:00,55.0,48.3,30.12,SSW,192,0.0,0.0,78,0.00,CLR,,0.00,WeatherDisplay:10.37,2013-08-15 05:51:00,
2013-08-15 00:52:00,55.1,48.4,30.12,SSW,192,0.0,0.0,78,0.00,CLR,,0.00,WeatherDisplay:10.37,2013-08-15 05:52:00,
2013-08-15 00:53:00,55.2,48.5,30.12,SSW,192,0.0,0.0,78,0.00,CLR,,0.00,WeatherDisplay:10.37,2013-08-15 05:53:00,
2013-08-15 00:55:00,55.1,48.7,30.12,SSW,192,0.0,0.0,79,0.00,CLR,,0.00,WeatherDisplay:10.37,2013-08-15 05:55:00,
2013-08-15 00:57:00,55.2,48.8,30.12,SSW,192,0.0,0.0,79,0.00,CLR,,0.00,WeatherDisplay:10.37,2013-08-15 05:57:00,
2013-08-15 00:58:00,55.2,48.8,30.12,SSW,192,0.0,0.0,79,0.00,CLR,,0.00,WeatherDisplay:10.37,2013-08-15 05:58:00,
2013-08-15 01:00:00,55.3,48.9,30.12,SSW,192,0.0,0.0,79,0.00,CLR,,0.00,WeatherDisplay:10.37,2013-08-15 06:00:00,
2013-08-15 01:02:00,55.4,49.0,30.12,SSW,192,0.0,0.0,79,0.00,CLR,,0.00,WeatherDisplay:10.37,2013-08-15 06:02:00,
2013-08-15 01:03:00,55.3,48.9,30.12,SSW,192,0.0,0.0,79,0.00,CLR,,0.00,WeatherDisplay:10.37,2013-08-15 06:03:00,
2013-08-15 01:05:00,55.4,49.0,30.12,SSW,192,0.0,0.0,79,0.00,CLR,,0.00,WeatherDisplay:10.37,2013-08-15 06:05:00,
2013-08-15 01:08:00,55.4,49.0,30.12,SSW,192,0.0,0.0,79,0.00,CLR,,0.00,WeatherDisplay:10.37,2013-08-15 06:08:00,
2013-08-15 01:10:00,55.5,49.1,30.12,SSW,192,0.0,0.0,79,0.00,CLR,,0.00,WeatherDisplay:10.37,2013-08-15 06:10:00,
2013-08-15 01:11:00,55.5,49.1,30.12,SSW,192,0.0,0.0,79,0.00,CLR,,0.00,WeatherDisplay:10.37,2013-08-15 06:11:00,
2013-08-15 01:13:00,55.5,49.1,30.12,SSW,192,0.0,0.0,79,0.00,CLR,,0.00,WeatherDisplay:10.37,2013-08-15 06:13:00,
2013-08-15 01:14:00,55.5,48.8,30.12,SSW,192,0.0,0.0,78,0.00,CLR,,0.00,WeatherDisplay:10.37,2013-08-15 06:14:00,
2013-08-15 01:16:00,55.5,48.8,30.12,SSW,192,0.0,0.0,78,0.00,CLR,,0.00,WeatherDisplay:10.37,2013-08-15 06:16:00,
2013-08-15 01:18:00,55.6,48.8,30.12,SSW,192,0.0,0.0,78,0.00,CLR,,0.00,WeatherDisplay:10.37,2013-08-15 06:18:00,
2013-08-15 01:19:00,55.5,48.8,30.12,SSW,192,0.0,0.0,78,0.00,CLR,,0.00,WeatherDisplay:10.37,2013-08-15 06:19:00,
2013-08-15 01:21:00,55.6,48.8,30.12,SSW,192,0.0,0.0,78,0.00,CLR,,0.00,WeatherDisplay:10.37,2013-08-15 06:21:00,
2013-08-15 01:22:00,55.6,48.8,30.12,SSW,192,0.0,0.0,78,0.00,CLR,,0.00,WeatherDisplay:10.37,2013-08-15 06:22:00,
2013-08-15 01:23:00,55.5,48.8,30.12,SSW,192,0.0,0.0,78,0.00,CLR,,0.00,WeatherDisplay:10.37,2013-08-15 06:23:00,
2013-08-15 01:24:00,55.7,48.9,30.12,SSW,192,0.0,0.0,78,0.00,CLR,,0.00,WeatherDisplay:10.37,2013-08-15 06:24:00,
2013-08-15 01:26:00,55.7,48.9,30.12,SSW,192,0.0,0.0,78,0.00,CLR,,0.00,WeatherDisplay:10.37,2013-08-15 06:26:00,
2013-08-15 01:27:00,55.6,48.8,30.12,SSW,192,0.0,0.0,78,0.00,CLR,,0.00,WeatherDisplay:10.37,2013-08-15 06:27:00,
2013-08-15 01:28:00,55.6,48.8,30.12,SSW,192,0.0,0.0,78,0.00,CLR,,0.00,WeatherDisplay:10.37,2013-08-15 06:28:00,
2013-08-15 01:29:00,55.7,48.9,30.12,SSW,192,0.0,0.0,78,0.00,CLR,,0.00,WeatherDisplay:10.37,2013-08-15 06:29:00,
2013-08-15 01:31:00,55.7,48.9,30.12,SSW,192,0.0,0.0,78,0.00,CLR,,0.00,WeatherDisplay:10.37,2013-08-15 06:31:00,
2013-08-15 01:32:00,55.7,48.9,30.12,SSW,192,0.0,0.0,78,0.00,CLR,,0.00,WeatherDisplay:10.37,2013-08-15 06:32:00,
2013-08-15 01:33:00,55.7,48.9,30.12,SSW,192,0.0,0.0,78,0.00,CLR,,0.00,WeatherDisplay:10.37,2013-08-15 06:33:00,
2013-08-15 01:34:00,55.8,49.0,30.12,SSW,192,0.0,0.0,78,0.00,CLR,,0.00,WeatherDisplay:10.37,2013-08-15 06:34:00,
2013-08-15 01:36:00,55.7,48.9,30.12,SSW,192,0.0,0.0,78,0.00,CLR,,0.00,WeatherDisplay:10.37,2013-08-15 06:36:00,
2013-08-15 01:37:00,55.8,49.0,30.12,SSW,192,0.0,0.0,78,0.00,CLR,,0.00,WeatherDisplay:10.37,2013-08-15 06:37:00,
2013-08-15 01:39:00,55.8,48.7,30.12,SSW,192,0.0,0.0,77,0.00,CLR,,0.00,WeatherDisplay:10.37,2013-08-15 06:39:00,
2013-08-15 01:41:00,55.9,48.8,30.12,SSW,192,0.0,0.0,77,0.00,CLR,,0.00,WeatherDisplay:10.37,2013-08-15 06:41:00,
2013-08-15 01:42:00,55.8,48.7,30.12,SSW,192,0.0,0.0,77,0.00,CLR,,0.00,WeatherDisplay:10.37,2013-08-15 06:42:00,
2013-08-15 01:44:00,55.9,48.8,30.11,SSW,192,0.0,0.0,77,0.00,CLR,,0.00,WeatherDisplay:10.37,2013-08-15 06:44:00,
2013-08-15 01:47:00,55.9,48.8,30.11,SSW,192,0.0,0.0,77,0.00,CLR,,0.00,WeatherDisplay:10.37,2013-08-15 06:47:00,
2013-08-15 01:49:00,55.9,49.1,30.11,SSW,192,0.0,0.0,78,0.00,CLR,,0.00,WeatherDisplay:10.37,2013-08-15 06:49:00,
2013-08-15 01:50:00,56.0,49.2,30.11,SSW,192,0.0,0.0,78,0.00,CLR,,0.00,WeatherDisplay:10.37,2013-08-15 06:50:00,
2013-08-15 01:52:00,55.9,49.1,30.11,SSW,192,0.0,0.0,78,0.00,CLR,,0.00,WeatherDisplay:10.37,2013-08-15 06:52:00,
2013-08-15 01:54:00,56.1,49.3,30.11,SSW,192,0.0,0.0,78,0.00,CLR,,0.00,WeatherDisplay:10.37,2013-08-15 06:54:00,
2013-08-15 01:55:00,56.1,49.3,30.11,SSW,192,0.0,0.0,78,0.00,CLR,,0.00,WeatherDisplay:10.37,2013-08-15 06:55:00,
2013-08-15 01:57:00,56.1,49.7,30.11,SSW,192,0.0,0.0,79,0.00,CLR,,0.00,WeatherDisplay:10.37,2013-08-15 06:57:00,
2013-08-15 01:58:00,56.0,49.2,30.11,SSW,192,0.0,0.0,78,0.00,CLR,,0.00,WeatherDisplay:10.37,2013-08-15 06:58:00,
2013-08-15 01:59:00,56.0,49.2,30.11,SSW,192,0.0,0.0,78,0.00,CLR,,0.00,WeatherDisplay:10.37,2013-08-15 06:59:00,
2013-08-15 02:01:00,56.0,49.2,30.11,SSW,192,0.0,0.0,78,0.00,CLR,,0.00,WeatherDisplay:10.37,2013-08-15 07:01:00,
2013-08-15 02:02:00,56.1,49.3,30.11,SSW,192,0.0,0.0,78,0.00,CLR,,0.00,WeatherDisplay:10.37,2013-08-15 07:02:00,
2013-08-15 02:03:00,56.0,49.2,30.11,SSW,192,0.0,0.0,78,0.00,CLR,,0.00,WeatherDisplay:10.37,2013-08-15 07:03:00,
2013-08-15 02:04:00,56.0,49.2,30.11,SSW,192,0.0,0.0,78,0.00,CLR,,0.00,WeatherDisplay:10.37,2013-08-15 07:04:00,
2013-08-15 02:05:00,56.0,49.2,30.11,SSW,192,0.0,0.0,78,0.00,CLR,,0.00,WeatherDisplay:10.37,2013-08-15 07:05:00,
2013-08-15 02:06:00,56.0,49.2,30.11,SSW,192,0.0,0.0,78,0.00,CLR,,0.00,WeatherDisplay:10.37,2013-08-15 07:06:00,
2013-08-15 02:07:00,56.0,49.2,30.11,SSW,192,0.0,0.0,78,0.00,CLR,,0.00,WeatherDisplay:10.37,2013-08-15 07:07:00,
2013-08-15 02:08:00,56.0,49.2,30.11,SSW,192,0.0,0.0,78,0.00,CLR,,0.00,WeatherDisplay:10.37,2013-08-15 07:08:00,
2013-08-15 02:09:00,55.9,49.1,30.11,SSW,192,0.0,0.0,78,0.00,CLR,,0.00,WeatherDisplay:10.37,2013-08-15 07:09:00,
2013-08-15 02:10:00,55.9,49.1,30.11,SSW,192,0.0,0.0,78,0.00,CLR,,0.00,WeatherDisplay:10.37,2013-08-15 07:10:00,
2013-08-15 02:11:00,55.8,49.0,30.11,SSW,192,0.0,0.0,78,0.00,CLR,,0.00,WeatherDisplay:10.37,2013-08-15 07:11:00,
2013-08-15 02:12:00,55.9,49.1,30.11,SSW,192,0.0,0.0,78,0.00,CLR,,0.00,WeatherDisplay:10.37,2013-08-15 07:12:00,
2013-08-15 02:13:00,55.8,49.0,30.11,SSW,192,0.0,0.0,78,0.00,CLR,,0.00,WeatherDisplay:10.37,2013-08-15 07:13:00,
2013-08-15 02:15:00,55.8,49.0,30.11,SSW,192,0.0,0.0,78,0.00,CLR,,0.00,WeatherDisplay:10.37,2013-08-15 07:15:00,
2013-08-15 02:16:00,55.7,48.9,30.11,SSW,192,0.0,0.0,78,0.00,CLR,,0.00,WeatherDisplay:10.37,2013-08-15 07:16:00,
2013-08-15 02:17:00,55.7,48.9,30.11,SSW,192,0.0,0.0,78,0.00,CLR,,0.00,WeatherDisplay:10.37,2013-08-15 07:17:00,
2013-08-15 02:19:00,55.6,48.5,30.11,SSW,192,0.0,0.0,77,0.00,CLR,,0.00,WeatherDisplay:10.37,2013-08-15 07:19:00,
2013-08-15 02:20:00,55.5,48.4,30.11,SSW,192,0.0,0.0,77,0.00,CLR,,0.00,WeatherDisplay:10.37,2013-08-15 07:20:00,
2013-08-15 02:21:00,55.4,48.3,30.11,SSW,192,0.0,0.0,77,0.00,CLR,,0.00,WeatherDisplay:10.37,2013-08-15 07:21:00,
2013-08-15 02:23:00,55.4,48.3,30.11,SSW,192,0.0,0.0,77,0.00,CLR,,0.00,WeatherDisplay:10.37,2013-08-15 07:23:00,
2013-08-15 02:24:00,55.4,48.3,30.11,SSW,192,0.0,0.0,77,0.00,CLR,,0.00,WeatherDisplay:10.37,2013-08-15 07:24:00,
2013-08-15 02:25:00,55.4,48.3,30.11,SSW,192,0.0,0.0,77,0.00,CLR,,0.00,WeatherDisplay:10.37,2013-08-15 07:25:00,
2013-08-15 02:26:00,55.4,48.3,30.11,SSW,192,0.0,0.0,77,0.00,CLR,,0.00,WeatherDisplay:10.37,2013-08-15 07:26:00,
2013-08-15 02:28:00,55.3,48.2,30.11,SSW,192,0.0,0.0,77,0.00,CLR,,0.00,WeatherDisplay:10.37,2013-08-15 07:28:00,
2013-08-15 02:30:00,55.2,48.1,30.11,SSW,192,0.0,0.0,77,0.00,CLR,,0.00,WeatherDisplay:10.37,2013-08-15 07:30:00,
2013-08-15 02:31:00,55.2,48.1,30.11,SSW,192,0.0,0.0,77,0.00,CLR,,0.00,WeatherDisplay:10.37,2013-08-15 07:31:00,
2013-08-15 02:34:00,55.1,48.0,30.11,SSW,192,0.0,0.0,77,0.00,CLR,,0.00,WeatherDisplay:10.37,2013-08-15 07:34:00,
2013-08-15 02:35:00,55.1,48.0,30.11,SSW,192,0.0,0.0,77,0.00,CLR,,0.00,WeatherDisplay:10.37,2013-08-15 07:35:00,
2013-08-15 02:36:00,55.0,47.9,30.11,SSW,192,0.0,0.0,77,0.00,CLR,,0.00,WeatherDisplay:10.37,2013-08-15 07:36:00,
2013-08-15 02:37:00,55.0,47.9,30.11,SSW,192,0.0,0.0,77,0.00,CLR,,0.00,WeatherDisplay:10.37,2013-08-15 07:37:00,
2013-08-15 02:39:00,54.9,47.8,30.11,SSW,192,0.0,0.0,77,0.00,CLR,,0.00,WeatherDisplay:10.37,2013-08-15 07:39:00,
2013-08-15 02:40:00,54.9,48.2,30.11,SSW,192,0.0,0.0,78,0.00,CLR,,0.00,WeatherDisplay:10.37,2013-08-15 07:40:00,
2013-08-15 02:41:00,54.9,48.2,30.11,SSW,192,0.0,0.0,78,0.00,CLR,,0.00,WeatherDisplay:10.37,2013-08-15 07:41:00,
2013-08-15 02:42:00,54.9,48.2,30.11,SSW,192,0.0,0.0,78,0.00,CLR,,0.00,WeatherDisplay:10.37,2013-08-15 07:42:00,
2013-08-15 02:44:00,54.7,48.0,30.11,SSW,192,0.0,0.0,78,0.00,CLR,,0.00,WeatherDisplay:10.37,2013-08-15 07:44:00,
2013-08-15 02:46:00,54.7,48.0,30.11,SSW,192,0.0,0.0,78,0.00,CLR,,0.00,WeatherDisplay:10.37,2013-08-15 07:46:00,
2013-08-15 02:47:00,54.8,48.4,30.11,SSW,192,0.0,0.0,79,0.00,CLR,,0.00,WeatherDisplay:10.37,2013-08-15 07:47:00,
2013-08-15 02:49:00,54.6,48.2,30.11,SSW,192,0.0,0.0,79,0.00,CLR,,0.00,WeatherDisplay:10.37,2013-08-15 07:49:00,
2013-08-15 02:51:00,54.5,48.1,30.11,SSW,192,0.0,0.0,79,0.00,CLR,,0.00,WeatherDisplay:10.37,2013-08-15 07:51:00,
2013-08-15 02:52:00,54.5,48.1,30.11,SSW,192,0.0,0.0,79,0.00,CLR,,0.00,WeatherDisplay:10.37,2013-08-15 07:52:00,
2013-08-15 02:55:00,54.4,48.0,30.11,SSW,192,0.0,0.0,79,0.00,CLR,,0.00,WeatherDisplay:10.37,2013-08-15 07:55:00,
2013-08-15 02:56:00,54.3,47.9,30.11,SSW,192,0.0,0.0,79,0.00,CLR,,0.00,WeatherDisplay:10.37,2013-08-15 07:56:00,
2013-08-15 02:57:00,54.3,47.9,30.11,SSW,192,0.0,0.0,79,0.00,CLR,,0.00,WeatherDisplay:10.37,2013-08-15 07:57:00,
2013-08-15 03:00:00,54.2,47.8,30.11,SSW,192,0.0,0.0,79,0.00,CLR,,0.00,WeatherDisplay:10.37,2013-08-15 08:00:00,
2013-08-15 03:01:00,54.1,47.7,30.11,SSW,192,0.0,0.0,79,0.00,CLR,,0.00,WeatherDisplay:10.37,2013-08-15 08:01:00,
2013-08-15 03:02:00,54.0,47.6,30.11,SSW,192,0.0,0.0,79,0.00,CLR,,0.00,WeatherDisplay:10.37,2013-08-15 08:02:00,
2013-08-15 03:05:00,54.0,47.6,30.11,SSW,192,0.0,0.0,79,0.00,CLR,,0.00,WeatherDisplay:10.37,2013-08-15 08:05:00,
2013-08-15 03:06:00,53.9,47.5,30.11,SSW,192,0.0,0.0,79,0.00,CLR,,0.00,WeatherDisplay:10.37,2013-08-15 08:06:00,
2013-08-15 03:07:00,53.8,47.4,30.11,SSW,192,0.0,0.0,79,0.00,CLR,,0.00,WeatherDisplay:10.37,2013-08-15 08:07:00,
2013-08-15 03:10:00,53.7,47.3,30.11,SSW,192,0.0,0.0,79,0.00,CLR,,0.00,WeatherDisplay:10.37,2013-08-15 08:10:00,
2013-08-15 03:11:00,53.8,47.4,30.11,SSW,192,0.0,0.0,79,0.00,CLR,,0.00,WeatherDisplay:10.37,2013-08-15 08:11:00,
2013-08-15 03:12:00,53.7,47.3,30.11,SSW,192,0.0,0.0,79,0.00,CLR,,0.00,WeatherDisplay:10.37,2013-08-15 08:12:00,
2013-08-15 03:16:00,53.6,47.2,30.11,SSW,192,0.0,0.0,79,0.00,CLR,,0.00,WeatherDisplay:10.37,2013-08-15 08:16:00,
2013-08-15 03:17:00,53.6,47.2,30.11,SSW,192,0.0,0.0,79,0.00,CLR,,0.00,WeatherDisplay:10.37,2013-08-15 08:17:00,
2013-08-15 03:18:00,53.6,47.2,30.11,SSW,192,0.0,0.0,79,0.00,CLR,,0.00,WeatherDisplay:10.37,2013-08-15 08:18:00,
2013-08-15 03:21:00,53.5,47.5,30.11,SSW,192,0.0,0.0,80,0.00,CLR,,0.00,WeatherDisplay:10.37,2013-08-15 08:21:00,
2013-08-15 03:22:00,53.6,47.6,30.11,SSW,192,0.0,0.0,80,0.00,CLR,,0.00,WeatherDisplay:10.37,2013-08-15 08:22:00,
2013-08-15 03:23:00,53.6,47.6,30.11,SSW,192,0.0,0.0,80,0.00,CLR,,0.00,WeatherDisplay:10.37,2013-08-15 08:23:00,
2013-08-15 03:26:00,53.5,47.5,30.11,SSW,192,0.0,0.0,80,0.00,CLR,,0.00,WeatherDisplay:10.37,2013-08-15 08:26:00,
2013-08-15 03:28:00,53.5,47.5,30.11,SSW,192,0.0,0.0,80,0.00,CLR,,0.00,WeatherDisplay:10.37,2013-08-15 08:28:00,
2013-08-15 03:31:00,53.6,47.6,30.11,SSW,192,0.0,0.0,80,0.00,CLR,,0.00,WeatherDisplay:10.37,2013-08-15 08:31:00,
2013-08-15 03:33:00,53.6,47.6,30.11,SSW,192,0.0,0.0,80,0.00,CLR,,0.00,WeatherDisplay:10.37,2013-08-15 08:33:00,
2013-08-15 03:34:00,53.6,47.6,30.11,SSW,192,0.0,0.0,80,0.00,CLR,,0.00,WeatherDisplay:10.37,2013-08-15 08:34:00,
2013-08-15 03:36:00,53.6,47.6,30.11,SSW,192,0.0,0.0,80,0.00,CLR,,0.00,WeatherDisplay:10.37,2013-08-15 08:36:00,
2013-08-15 03:38:00,53.6,47.6,30.11,SSW,192,0.0,0.0,80,0.00,CLR,,0.00,WeatherDisplay:10.37,2013-08-15 08:38:00,
2013-08-15 03:39:00,53.6,47.6,30.11,SSW,192,0.0,0.0,80,0.00,CLR,,0.00,WeatherDisplay:10.37,2013-08-15 08:39:00,
2013-08-15 03:42:00,53.6,47.6,30.11,SSW,192,0.0,0.0,80,0.00,CLR,,0.00,WeatherDisplay:10.37,2013-08-15 08:42:00,
2013-08-15 03:43:00,53.6,47.9,30.11,SSW,192,0.0,0.0,81,0.00,CLR,,0.00,WeatherDisplay:10.37,2013-08-15 08:43:00,
2013-08-15 03:44:00,53.6,47.9,30.11,SSW,192,0.0,0.0,81,0.00,CLR,,0.00,WeatherDisplay:10.37,2013-08-15 08:44:00,
2013-08-15 03:47:00,53.7,48.0,30.11,SSW,192,0.0,0.0,81,0.00,CLR,,0.00,WeatherDisplay:10.37,2013-08-15 08:47:00,
2013-08-15 03:49:00,53.7,48.0,30.11,SSW,192,0.0,0.0,81,0.00,CLR,,0.00,WeatherDisplay:10.37,2013-08-15 08:49:00,
2013-08-15 03:52:00,53.7,48.0,30.11,SSW,192,0.0,0.0,81,0.00,CLR,,0.00,WeatherDisplay:10.37,2013-08-15 08:52:00,
2013-08-15 03:54:00,53.7,48.0,30.11,SSW,192,0.0,0.0,81,0.00,CLR,,0.00,WeatherDisplay:10.37,2013-08-15 08:54:00,
2013-08-15 03:58:00,53.8,48.1,30.11,SSW,192,0.0,0.0,81,0.00,CLR,,0.00,WeatherDisplay:10.37,2013-08-15 08:58:00,
2013-08-15 03:59:00,53.8,48.1,30.11,SSW,192,0.0,0.0,81,0.00,CLR,,0.00,WeatherDisplay:10.37,2013-08-15 08:59:00,
2013-08-15 04:00:00,53.9,48.2,30.11,SSW,192,0.0,0.0,81,0.00,CLR,,0.00,WeatherDisplay:10.37,2013-08-15 09:00:00,
2013-08-15 04:03:00,54.0,48.3,30.11,SSW,192,0.0,0.0,81,0.00,CLR,,0.00,WeatherDisplay:10.37,2013-08-15 09:03:00,
2013-08-15 04:04:00,53.9,48.2,30.11,SSW,192,0.0,0.0,81,0.00,CLR,,0.00,WeatherDisplay:10.37,2013-08-15 09:04:00,
2013-08-15 04:05:00,54.0,48.3,30.11,SSW,192,0.0,0.0,81,0.00,CLR,,0.00,WeatherDisplay:10.37,2013-08-15 09:05:00,
2013-08-15 04:08:00,54.0,48.3,30.11,SSW,192,0.0,0.0,81,0.00,CLR,,0.00,WeatherDisplay:10.37,2013-08-15 09:08:00,
2013-08-15 04:09:00,54.0,48.3,30.11,SSW,192,0.0,0.0,81,0.00,CLR,,0.00,WeatherDisplay:10.37,2013-08-15 09:09:00,
2013-08-15 04:10:00,54.0,48.3,30.11,SSW,192,0.0,0.0,81,0.00,CLR,,0.00,WeatherDisplay:10.37,2013-08-15 09:10:00,
2013-08-15 04:13:00,54.0,48.3,30.11,SSW,192,0.0,0.0,81,0.00,CLR,,0.00,WeatherDisplay:10.37,2013-08-15 09:13:00,
2013-08-15 04:15:00,54.0,48.3,30.11,SSW,192,0.0,0.0,81,0.00,CLR,,0.00,WeatherDisplay:10.37,2013-08-15 09:15:00,
2013-08-15 04:18:00,54.1,48.4,30.11,SSW,192,0.0,0.0,81,0.00,CLR,,0.00,WeatherDisplay:10.37,2013-08-15 09:18:00,
2013-08-15 04:20:00,54.2,48.5,30.11,SSW,192,0.0,0.0,81,0.00,CLR,,0.00,WeatherDisplay:10.37,2013-08-15 09:20:00,
2013-08-15 04:21:00,54.2,48.5,30.12,SSW,192,0.0,0.0,81,0.00,CLR,,0.00,WeatherDisplay:10.37,2013-08-15 09:21:00,
2013-08-15 04:23:00,54.3,48.6,30.11,SSE,168,0.3,1.2,81,0.00,CLR,,0.00,WeatherDisplay:10.37,2013-08-15 09:23:00,
2013-08-15 04:25:00,54.3,48.6,30.11,SSE,168,0.1,0.0,81,0.00,CLR,,0.00,WeatherDisplay:10.37,2013-08-15 09:25:00,
2013-08-15 04:26:00,54.3,48.6,30.11,SSE,168,0.0,0.0,81,0.00,CLR,,0.00,WeatherDisplay:10.37,2013-08-15 09:26:00,
2013-08-15 04:29:00,54.4,48.7,30.11,SSE,168,0.0,0.0,81,0.00,CLR,,0.00,WeatherDisplay:10.37,2013-08-15 09:29:00,
2013-08-15 04:30:00,54.5,48.8,30.11,SSE,168,0.0,0.0,81,0.00,CLR,,0.00,WeatherDisplay:10.37,2013-08-15 09:30:00,
2013-08-15 04:31:00,54.5,48.8,30.11,SSE,168,0.0,0.0,81,0.00,CLR,,0.00,WeatherDisplay:10.37,2013-08-15 09:31:00,
2013-08-15 04:32:00,54.5,48.8,30.11,SSE,168,0.0,0.0,81,0.00,CLR,,0.00,WeatherDisplay:10.37,2013-08-15 09:32:00,
2013-08-15 04:34:00,54.5,48.8,30.11,SSE,168,0.0,0.0,81,0.00,CLR,,0.00,WeatherDisplay:10.37,2013-08-15 09:34:00,
2013-08-15 04:35:00,54.5,48.8,30.11,SSE,168,0.0,0.0,81,0.00,CLR,,0.00,WeatherDisplay:10.37,2013-08-15 09:35:00,
2013-08-15 04:36:00,54.6,48.9,30.11,SSE,168,0.0,0.0,81,0.00,CLR,,0.00,WeatherDisplay:10.37,2013-08-15 09:36:00,
2013-08-15 04:37:00,54.6,48.9,30.11,SSE,168,0.0,0.0,81,0.00,CLR,,0.00,WeatherDisplay:10.37,2013-08-15 09:37:00,
2013-08-15 04:39:00,54.5,48.8,30.11,SSE,168,0.0,0.0,81,0.00,CLR,,0.00,WeatherDisplay:10.37,2013-08-15 09:39:00,
2013-08-15 04:40:00,54.6,48.9,30.11,SSE,168,0.0,0.0,81,0.00,CLR,,0.00,WeatherDisplay:10.37,2013-08-15 09:40:00,
2013-08-15 04:41:00,54.6,48.6,30.11,SSE,168,0.0,0.0,80,0.00,CLR,,0.00,WeatherDisplay:10.37,2013-08-15 09:41:00,
2013-08-15 04:42:00,54.6,48.6,30.11,SSE,168,0.0,0.0,80,0.00,CLR,,0.00,WeatherDisplay:10.37,2013-08-15 09:42:00,
2013-08-15 04:44:00,54.6,48.6,30.11,SSE,168,0.0,0.0,80,0.00,CLR,,0.00,WeatherDisplay:10.37,2013-08-15 09:44:00,
2013-08-15 04:46:00,54.6,48.6,30.11,SSE,168,0.0,0.0,80,0.00,CLR,,0.00,WeatherDisplay:10.37,2013-08-15 09:46:00,
2013-08-15 04:47:00,54.6,48.6,30.11,SSE,168,0.0,0.0,80,0.00,CLR,,0.00,WeatherDisplay:10.37,2013-08-15 09:47:00,
2013-08-15 04:49:00,54.6,48.6,30.11,SSE,168,0.0,0.0,80,0.00,CLR,,0.00,WeatherDisplay:10.37,2013-08-15 09:49:00,
2013-08-15 04:51:00,54.6,48.6,30.11,SSE,168,0.0,0.0,80,0.00,CLR,,0.00,WeatherDisplay:10.37,2013-08-15 09:51:00,
2013-08-15 04:52:00,54.5,48.5,30.11,SSE,168,0.0,0.0,80,0.00,CLR,,0.00,WeatherDisplay:10.37,2013-08-15 09:52:00,
2013-08-15 04:54:00,54.5,48.5,30.11,SSE,168,0.0,0.0,80,0.00,CLR,,0.00,WeatherDisplay:10.37,2013-08-15 09:54:00,
2013-08-15 04:56:00,54.4,48.4,30.11,SSE,168,0.0,0.0,80,0.00,CLR,,0.00,WeatherDisplay:10.37,2013-08-15 09:56:00,
2013-08-15 04:57:00,54.5,48.5,30.11,SSE,168,0.0,0.0,80,0.00,CLR,,0.00,WeatherDisplay:10.37,2013-08-15 09:57:00,
2013-08-15 04:59:00,54.5,48.5,30.11,SSE,168,0.0,0.0,80,0.00,CLR,,0.00,WeatherDisplay:10.37,2013-08-15 09:59:00,
2013-08-15 05:01:00,54.5,48.5,30.11,SSE,168,0.0,0.0,80,0.00,CLR,,0.00,WeatherDisplay:10.37,2013-08-15 10:01:00,
2013-08-15 05:02:00,54.4,48.4,30.11,SSE,168,0.0,0.0,80,0.00,CLR,,0.00,WeatherDisplay:10.37,2013-08-15 10:02:00,
2013-08-15 05:03:00,54.4,48.4,30.11,SSE,168,0.0,0.0,80,0.00,CLR,,0.00,WeatherDisplay:10.37,2013-08-15 10:03:00,
2013-08-15 05:04:00,54.4,48.4,30.11,SSE,168,0.0,0.0,80,0.00,CLR,,0.00,WeatherDisplay:10.37,2013-08-15 10:04:00,
2013-08-15 05:06:00,54.3,48.3,30.11,SSE,168,0.0,0.0,80,0.00,CLR,,0.00,WeatherDisplay:10.37,2013-08-15 10:06:00,
2013-08-15 05:07:00,54.4,48.4,30.11,SSE,168,0.0,0.0,80,0.00,CLR,,0.00,WeatherDisplay:10.37,2013-08-15 10:07:00,
2013-08-15 05:08:00,54.3,48.3,30.11,SSE,168,0.0,0.0,80,0.00,CLR,,0.00,WeatherDisplay:10.37,2013-08-15 10:08:00,
2013-08-15 05:09:00,54.3,48.3,30.11,SSE,168,0.0,0.0,80,0.00,CLR,,0.00,WeatherDisplay:10.37,2013-08-15 10:09:00,
2013-08-15 05:12:00,54.3,48.3,30.11,SSE,168,0.0,0.0,80,0.00,CLR,,0.00,WeatherDisplay:10.37,2013-08-15 10:12:00,
2013-08-15 05:13:00,54.2,48.2,30.11,SSE,168,0.0,0.0,80,0.00,CLR,,0.00,WeatherDisplay:10.37,2013-08-15 10:13:00,
2013-08-15 05:15:00,54.2,48.2,30.11,SSE,168,0.0,0.0,80,0.00,CLR,,0.00,WeatherDisplay:10.37,2013-08-15 10:15:00,
2013-08-15 05:17:00,54.2,48.2,30.11,SSE,168,0.0,0.0,80,0.00,CLR,,0.00,WeatherDisplay:10.37,2013-08-15 10:17:00,
2013-08-15 05:18:00,54.2,48.2,30.11,SSE,168,0.0,0.0,80,0.00,CLR,,0.00,WeatherDisplay:10.37,2013-08-15 10:18:00,
2013-08-15 05:20:00,54.1,48.1,30.11,SSE,168,0.0,0.0,80,0.00,CLR,,0.00,WeatherDisplay:10.37,2013-08-15 10:20:00,
2013-08-15 05:22:00,54.1,48.1,30.11,SSE,168,0.0,0.0,80,0.00,CLR,,0.00,WeatherDisplay:10.37,2013-08-15 10:22:00,
2013-08-15 05:23:00,54.1,48.1,30.11,SSE,168,0.0,0.0,80,0.00,CLR,,0.00,WeatherDisplay:10.37,2013-08-15 10:23:00,
2013-08-15 05:24:00,54.2,47.8,30.11,SSE,168,0.0,0.0,79,0.00,CLR,,0.00,WeatherDisplay:10.37,2013-08-15 10:24:00,
2013-08-15 05:25:00,54.0,48.0,30.11,SSE,168,0.0,0.0,80,0.00,CLR,,0.00,WeatherDisplay:10.37,2013-08-15 10:25:00,
2013-08-15 05:27:00,54.1,48.1,30.11,SSE,168,0.0,0.0,80,0.00,CLR,,0.00,WeatherDisplay:10.37,2013-08-15 10:27:00,
2013-08-15 05:28:00,54.1,48.1,30.11,SSE,168,0.0,0.0,80,0.00,CLR,,0.00,WeatherDisplay:10.37,2013-08-15 10:28:00,
2013-08-15 05:29:00,54.1,48.1,30.11,SSE,168,0.0,0.0,80,0.00,CLR,,0.00,WeatherDisplay:10.37,2013-08-15 10:29:00,
2013-08-15 05:30:00,54.1,48.1,30.11,SSE,168,0.0,0.0,80,0.00,CLR,,0.00,WeatherDisplay:10.37,2013-08-15 10:30:00,
2013-08-15 05:32:00,54.0,48.0,30.11,SSE,168,0.0,0.0,80,0.00,CLR,,0.00,WeatherDisplay:10.37,2013-08-15 10:32:00,
2013-08-15 05:33:00,54.0,48.0,30.11,SSE,168,0.0,0.0,80,0.00,CLR,,0.00,WeatherDisplay:10.37,2013-08-15 10:33:00,
2013-08-15 05:34:00,54.0,48.0,30.11,SSE,168,0.0,0.0,80,0.00,CLR,,0.00,WeatherDisplay:10.37,2013-08-15 10:34:00,
2013-08-15 05:36:00,54.0,48.0,30.11,SSE,168,0.0,0.0,80,0.00,CLR,,0.00,WeatherDisplay:10.37,2013-08-15 10:36:00,
2013-08-15 05:38:00,54.0,48.0,30.11,SSE,168,0.0,0.0,80,0.00,CLR,,0.00,WeatherDisplay:10.37,2013-08-15 10:38:00,
2013-08-15 05:39:00,53.9,47.9,30.11,SSE,168,0.0,0.0,80,0.00,CLR,,0.00,WeatherDisplay:10.37,2013-08-15 10:39:00,
2013-08-15 05:41:00,53.9,48.2,30.11,SSE,168,0.0,0.0,81,0.00,CLR,,0.00,WeatherDisplay:10.37,2013-08-15 10:41:00,
2013-08-15 05:43:00,53.9,48.2,30.11,NNE,20,0.1,0.9,81,0.00,CLR,,0.00,WeatherDisplay:10.37,2013-08-15 10:43:00,
2013-08-15 05:44:00,53.9,48.2,30.11,NNE,14,1.7,2.5,81,0.00,CLR,,0.00,WeatherDisplay:10.37,2013-08-15 10:44:00,
2013-08-15 05:45:00,53.9,48.5,30.11,NNE,30,2.1,2.3,82,0.00,CLR,,0.00,WeatherDisplay:10.37,2013-08-15 10:45:00,
2013-08-15 05:46:00,53.9,48.5,30.11,North,4,0.9,2.3,82,0.00,CLR,,0.00,WeatherDisplay:10.37,2013-08-15 10:46:00,
2013-08-15 05:48:00,53.9,48.5,30.11,NE,38,0.0,0.0,82,0.00,CLR,,0.00,WeatherDisplay:10.37,2013-08-15 10:48:00,
2013-08-15 05:49:00,53.8,48.4,30.11,NE,38,0.0,0.0,82,0.00,CLR,,0.00,WeatherDisplay:10.37,2013-08-15 10:49:00,
2013-08-15 05:51:00,53.8,48.4,30.11,North,7,0.5,2.3,82,0.00,CLR,,0.00,WeatherDisplay:10.37,2013-08-15 10:51:00,
2013-08-15 05:54:00,53.9,48.9,30.11,West,267,0.0,0.0,83,0.00,CLR,,0.00,WeatherDisplay:10.37,2013-08-15 10:54:00,
2013-08-15 05:55:00,53.9,48.9,30.11,West,267,0.0,0.0,83,0.00,CLR,,0.00,WeatherDisplay:10.37,2013-08-15 10:55:00,
2013-08-15 05:56:00,53.9,48.9,30.11,West,267,0.0,0.0,83,0.00,CLR,,0.00,WeatherDisplay:10.37,2013-08-15 10:56:00,
2013-08-15 05:59:00,53.9,48.9,30.11,NE,44,0.9,2.3,83,0.00,CLR,,0.00,WeatherDisplay:10.37,2013-08-15 10:59:00,
2013-08-15 06:00:00,53.9,48.9,30.11,NNE,27,1.2,2.3,83,0.00,CLR,,0.00,WeatherDisplay:10.37,2013-08-15 11:00:00,
2013-08-15 06:01:00,53.9,48.9,30.11,NNW,344,0.4,1.2,83,0.00,CLR,,0.00,WeatherDisplay:10.37,2013-08-15 11:01:00,
2013-08-15 06:04:00,53.9,48.9,30.11,NNW,344,0.0,0.0,83,0.00,CLR,,0.00,WeatherDisplay:10.37,2013-08-15 11:04:00,
2013-08-15 06:05:00,53.9,48.9,30.11,NNW,344,0.0,0.0,83,0.00,CLR,,0.00,WeatherDisplay:10.37,2013-08-15 11:05:00,
2013-08-15 06:06:00,54.0,49.0,30.11,NNW,344,0.0,0.0,83,0.00,CLR,,0.00,WeatherDisplay:10.37,2013-08-15 11:06:00,
2013-08-15 06:07:00,54.0,49.3,30.11,NNW,344,0.0,0.0,84,0.00,CLR,,0.00,WeatherDisplay:10.37,2013-08-15 11:07:00,
2013-08-15 06:09:00,53.9,48.9,30.11,NNW,344,0.0,0.0,83,0.00,CLR,,0.00,WeatherDisplay:10.37,2013-08-15 11:09:00,
2013-08-15 06:10:00,54.0,49.0,30.11,NNW,344,0.0,0.0,83,0.00,CLR,,0.00,WeatherDisplay:10.37,2013-08-15 11:10:00,
2013-08-15 06:11:00,53.9,48.9,30.11,ESE,107,1.2,2.3,83,0.00,CLR,,0.00,WeatherDisplay:10.37,2013-08-15 11:11:00,
2013-08-15 06:12:00,53.9,48.9,30.11,ESE,123,1.6,2.3,83,0.00,CLR,,0.00,WeatherDisplay:10.37,2013-08-15 11:12:00,
2013-08-15 06:14:00,53.9,48.9,30.12,East,88,0.0,1.2,83,0.00,CLR,,0.00,WeatherDisplay:10.37,2013-08-15 11:14:00,
2013-08-15 06:15:00,53.8,48.8,30.12,East,88,0.0,0.0,83,0.00,CLR,,0.00,WeatherDisplay:10.37,2013-08-15 11:15:00,
2013-08-15 06:17:00,53.8,48.8,30.11,East,88,0.0,0.0,83,0.00,CLR,,0.00,WeatherDisplay:10.37,2013-08-15 11:17:00,
2013-08-15 06:19:00,53.7,48.7,30.12,East,88,0.0,0.0,83,0.00,CLR,,0.00,WeatherDisplay:10.37,2013-08-15 11:19:00,
2013-08-15 06:20:00,53.8,48.8,30.12,East,88,0.0,0.0,83,0.00,CLR,,0.00,WeatherDisplay:10.37,2013-08-15 11:20:00,
2013-08-15 06:22:00,53.8,48.8,30.12,East,88,0.0,0.0,83,0.00,CLR,,0.00,WeatherDisplay:10.37,2013-08-15 11:22:00,
2013-08-15 06:23:00,53.7,48.7,30.12,East,88,0.0,0.0,83,0.00,CLR,,0.00,WeatherDisplay:10.37,2013-08-15 11:23:00,
2013-08-15 06:25:00,53.8,48.8,30.12,East,88,0.0,0.0,83,0.00,CLR,,0.00,WeatherDisplay:10.37,2013-08-15 11:25:00,
2013-08-15 06:26:00,53.8,48.8,30.12,East,88,0.0,0.0,83,0.00,CLR,,0.00,WeatherDisplay:10.37,2013-08-15 11:26:00,
2013-08-15 06:27:00,53.8,49.1,30.12,East,88,0.0,0.0,84,0.00,CLR,,0.00,WeatherDisplay:10.37,2013-08-15 11:27:00,
2013-08-15 06:28:00,53.7,49.0,30.12,East,88,0.0,0.0,84,0.00,CLR,,0.00,WeatherDisplay:10.37,2013-08-15 11:28:00,
2013-08-15 06:30:00,53.9,49.2,30.12,East,88,0.0,0.0,84,0.00,CLR,,0.00,WeatherDisplay:10.37,2013-08-15 11:30:00,
2013-08-15 06:31:00,53.9,49.2,30.12,East,88,0.0,0.0,84,0.00,CLR,,0.00,WeatherDisplay:10.37,2013-08-15 11:31:00,
2013-08-15 06:32:00,53.9,49.2,30.12,East,88,0.0,0.0,84,0.00,CLR,,0.00,WeatherDisplay:10.37,2013-08-15 11:32:00,
2013-08-15 06:33:00,53.9,49.2,30.12,East,88,0.0,0.0,84,0.00,CLR,,0.00,WeatherDisplay:10.37,2013-08-15 11:33:00,
2013-08-15 06:35:00,54.0,49.3,30.12,East,88,0.0,0.0,84,0.00,CLR,,0.00,WeatherDisplay:10.37,2013-08-15 11:35:00,
2013-08-15 06:36:00,54.0,49.3,30.12,East,88,0.0,0.0,84,0.00,CLR,,0.00,WeatherDisplay:10.37,2013-08-15 11:36:00,
2013-08-15 06:38:00,54.0,49.3,30.12,East,88,0.0,0.0,84,0.00,CLR,,0.00,WeatherDisplay:10.37,2013-08-15 11:38:00,
2013-08-15 06:40:00,54.1,49.4,30.12,East,88,0.0,0.0,84,0.00,CLR,,0.00,WeatherDisplay:10.37,2013-08-15 11:40:00,
2013-08-15 06:41:00,54.1,49.4,30.12,East,88,0.0,0.0,84,0.00,CLR,,0.00,WeatherDisplay:10.37,2013-08-15 11:41:00,
2013-08-15 06:43:00,54.1,49.4,30.12,East,88,0.0,0.0,84,0.00,CLR,,0.00,WeatherDisplay:10.37,2013-08-15 11:43:00,
2013-08-15 06:45:00,54.2,49.5,30.13,East,88,0.0,0.0,84,0.00,CLR,,0.00,WeatherDisplay:10.37,2013-08-15 11:45:00,
2013-08-15 06:46:00,54.2,49.5,30.13,East,88,0.0,0.0,84,0.00,CLR,,0.00,WeatherDisplay:10.37,2013-08-15 11:46:00,
2013-08-15 06:48:00,54.3,49.6,30.13,East,88,0.0,0.0,84,0.00,CLR,,0.00,WeatherDisplay:10.37,2013-08-15 11:48:00,
2013-08-15 06:51:00,54.4,49.7,30.13,East,88,0.0,0.0,84,0.00,CLR,,0.00,WeatherDisplay:10.37,2013-08-15 11:51:00,
2013-08-15 06:53:00,54.5,49.8,30.13,East,88,0.0,0.0,84,0.00,CLR,,0.00,WeatherDisplay:10.37,2013-08-15 11:53:00,
2013-08-15 06:56:00,54.6,49.9,30.13,East,88,0.0,0.0,84,0.00,CLR,,0.00,WeatherDisplay:10.37,2013-08-15 11:56:00,
2013-08-15 06:57:00,54.7,50.0,30.13,East,88,0.0,0.0,84,0.00,CLR,,0.00,WeatherDisplay:10.37,2013-08-15 11:57:00,
2013-08-15 06:58:00,54.8,50.1,30.13,East,88,0.0,0.0,84,0.00,CLR,,0.00,WeatherDisplay:10.37,2013-08-15 11:58:00,
2013-08-15 07:01:00,54.8,50.1,30.13,East,88,0.0,0.0,84,0.00,CLR,,0.00,WeatherDisplay:10.37,2013-08-15 12:01:00,
2013-08-15 07:02:00,54.9,50.2,30.13,East,88,0.0,0.0,84,0.00,CLR,,0.00,WeatherDisplay:10.37,2013-08-15 12:02:00,
2013-08-15 07:03:00,54.9,50.2,30.13,East,88,0.0,0.0,84,0.00,CLR,,0.00,WeatherDisplay:10.37,2013-08-15 12:03:00,
2013-08-15 07:04:00,54.9,50.2,30.13,East,88,0.0,0.0,84,0.00,CLR,,0.00,WeatherDisplay:10.37,2013-08-15 12:04:00,
2013-08-15 07:06:00,55.1,50.4,30.13,NE,40,1.5,2.3,84,0.00,CLR,,0.00,WeatherDisplay:10.37,2013-08-15 12:06:00,
2013-08-15 07:07:00,55.2,50.4,30.13,NNE,32,0.7,2.3,84,0.00,CLR,,0.00,WeatherDisplay:10.37,2013-08-15 12:07:00,
2013-08-15 07:08:00,55.1,50.4,30.13,NNE,32,0.0,0.0,84,0.00,CLR,,0.00,WeatherDisplay:10.37,2013-08-15 12:08:00,
2013-08-15 07:09:00,55.2,50.4,30.13,NNE,32,0.0,0.0,84,0.00,CLR,,0.00,WeatherDisplay:10.37,2013-08-15 12:09:00,
2013-08-15 07:11:00,55.4,50.6,30.13,NNE,32,0.0,0.0,84,0.00,CLR,,0.00,WeatherDisplay:10.37,2013-08-15 12:11:00,
2013-08-15 07:12:00,55.4,50.6,30.13,NNE,32,0.0,0.0,84,0.00,CLR,,0.00,WeatherDisplay:10.37,2013-08-15 12:12:00,
2013-08-15 07:14:00,55.5,50.7,30.13,NNE,32,0.0,0.0,84,0.00,CLR,,0.00,WeatherDisplay:10.37,2013-08-15 12:14:00,
2013-08-15 07:16:00,55.7,50.9,30.13,NNE,32,0.0,0.0,84,0.00,CLR,,0.00,WeatherDisplay:10.37,2013-08-15 12:16:00,
2013-08-15 07:17:00,55.6,50.8,30.13,NNE,32,0.0,0.0,84,0.00,CLR,,0.00,WeatherDisplay:10.37,2013-08-15 12:17:00,
2013-08-15 07:19:00,55.8,51.0,30.13,NNE,32,0.0,0.0,84,0.00,CLR,,0.00,WeatherDisplay:10.37,2013-08-15 12:19:00,
2013-08-15 07:21:00,55.9,51.1,30.13,NNE,32,0.0,0.0,84,0.00,CLR,,0.00,WeatherDisplay:10.37,2013-08-15 12:21:00,
2013-08-15 07:22:00,55.9,51.1,30.14,NNE,32,0.0,0.0,84,0.00,CLR,,0.00,WeatherDisplay:10.37,2013-08-15 12:22:00,
2013-08-15 07:24:00,55.9,51.1,30.14,NNE,32,0.0,0.0,84,0.00,CLR,,0.00,WeatherDisplay:10.37,2013-08-15 12:24:00,
2013-08-15 07:26:00,56.0,51.2,30.13,SSW,203,0.9,1.2,84,0.00,CLR,,0.00,WeatherDisplay:10.37,2013-08-15 12:26:00,
2013-08-15 07:27:00,56.1,51.3,30.13,SSW,203,0.1,1.2,84,0.00,CLR,,0.00,WeatherDisplay:10.37,2013-08-15 12:27:00,
2013-08-15 07:28:00,56.2,51.4,30.13,SSW,203,0.0,0.0,84,0.00,CLR,,0.00,WeatherDisplay:10.37,2013-08-15 12:28:00,
2013-08-15 07:29:00,56.3,51.5,30.13,SSW,203,0.0,0.0,84,0.00,CLR,,0.00,WeatherDisplay:10.37,2013-08-15 12:29:00,
2013-08-15 07:30:00,56.3,51.5,30.13,SSW,203,0.0,0.0,84,0.00,CLR,,0.00,WeatherDisplay:10.37,2013-08-15 12:30:00,
2013-08-15 07:32:00,56.4,51.6,30.13,SSW,203,0.0,0.0,84,0.00,CLR,,0.00,WeatherDisplay:10.37,2013-08-15 12:32:00,
2013-08-15 07:33:00,56.5,51.7,30.13,SSW,203,0.0,0.0,84,0.00,CLR,,0.00,WeatherDisplay:10.37,2013-08-15 12:33:00,
2013-08-15 07:34:00,56.5,51.7,30.13,SSW,203,0.0,0.0,84,0.00,CLR,,0.00,WeatherDisplay:10.37,2013-08-15 12:34:00,
2013-08-15 07:35:00,56.7,51.9,30.13,SW,226,1.3,1.5,84,0.00,CLR,,0.00,WeatherDisplay:10.37,2013-08-15 12:35:00,
2013-08-15 07:37:00,56.7,51.9,30.13,SW,220,0.1,1.2,84,0.00,CLR,,0.00,WeatherDisplay:10.37,2013-08-15 12:37:00,
2013-08-15 07:38:00,56.8,52.0,30.13,SSW,206,0.1,1.2,84,0.00,CLR,,0.00,WeatherDisplay:10.37,2013-08-15 12:38:00,
2013-08-15 07:39:00,56.9,52.1,30.13,SSW,206,0.0,0.0,84,0.00,CLR,,0.00,WeatherDisplay:10.37,2013-08-15 12:39:00,
2013-08-15 07:40:00,57.0,52.2,30.13,SSW,206,0.0,0.0,84,0.00,CLR,,0.00,WeatherDisplay:10.37,2013-08-15 12:40:00,
2013-08-15 07:42:00,57.2,52.4,30.14,SSW,206,0.0,0.0,84,0.00,CLR,,0.00,WeatherDisplay:10.37,2013-08-15 12:42:00,
2013-08-15 07:43:00,57.3,52.5,30.14,SSW,206,0.0,0.0,84,0.00,CLR,,0.00,WeatherDisplay:10.37,2013-08-15 12:43:00,
2013-08-15 07:44:00,57.2,52.4,30.14,SSW,206,0.0,0.0,84,0.00,CLR,,0.00,WeatherDisplay:10.37,2013-08-15 12:44:00,
2013-08-15 07:45:00,57.3,52.5,30.14,SSW,206,0.0,0.0,84,0.00,CLR,,0.00,WeatherDisplay:10.37,2013-08-15 12:45:00,
2013-08-15 07:47:00,57.5,52.7,30.14,SSW,202,0.1,0.0,84,0.00,CLR,,0.00,WeatherDisplay:10.37,2013-08-15 12:47:00,
2013-08-15 07:49:00,57.7,52.6,30.14,SSW,202,0.0,0.0,83,0.00,CLR,,0.00,WeatherDisplay:10.37,2013-08-15 12:49:00,
2013-08-15 07:51:00,57.8,52.7,30.13,SSW,202,0.0,0.0,83,0.00,CLR,,0.00,WeatherDisplay:10.37,2013-08-15 12:51:00,
2013-08-15 07:52:00,57.9,52.8,30.14,South,181,0.2,1.2,83,0.00,CLR,,0.00,WeatherDisplay:10.37,2013-08-15 12:52:00,
2013-08-15 07:54:00,58.0,52.9,30.14,South,181,0.0,0.0,83,0.00,CLR,,0.00,WeatherDisplay:10.37,2013-08-15 12:54:00,
2013-08-15 07:56:00,58.2,53.1,30.14,South,181,0.0,0.0,83,0.00,CLR,,0.00,WeatherDisplay:10.37,2013-08-15 12:56:00,
2013-08-15 07:57:00,58.2,53.1,30.14,South,181,0.0,0.0,83,0.00,CLR,,0.00,WeatherDisplay:10.37,2013-08-15 12:57:00,
2013-08-15 07:59:00,58.3,53.2,30.14,South,181,0.0,0.0,83,0.00,CLR,,0.00,WeatherDisplay:10.37,2013-08-15 12:59:00,
2013-08-15 08:01:00,58.5,53.0,30.14,WSW,250,0.0,1.2,82,0.00,CLR,,0.00,WeatherDisplay:10.37,2013-08-15 13:01:00,
2013-08-15 08:02:00,58.5,53.0,30.14,WSW,250,0.0,0.0,82,0.00,CLR,,0.00,WeatherDisplay:10.37,2013-08-15 13:02:00,
2013-08-15 08:04:00,58.5,53.0,30.14,WSW,250,0.0,0.0,82,0.00,CLR,,0.00,WeatherDisplay:10.37,2013-08-15 13:04:00,
2013-08-15 08:05:00,58.6,53.1,30.14,WSW,250,0.0,0.0,82,0.00,CLR,,0.00,WeatherDisplay:10.37,2013-08-15 13:05:00,
2013-08-15 08:06:00,58.7,53.2,30.14,WSW,240,0.0,1.1,82,0.00,CLR,,0.00,WeatherDisplay:10.37,2013-08-15 13:06:00,
2013-08-15 08:07:00,58.8,53.3,30.14,SW,227,1.2,2.3,82,0.00,CLR,,0.00,WeatherDisplay:10.37,2013-08-15 13:07:00,
2013-08-15 08:09:00,58.9,53.1,30.14,SW,224,0.9,1.4,81,0.00,CLR,,0.00,WeatherDisplay:10.37,2013-08-15 13:09:00,
2013-08-15 08:10:00,58.9,53.1,30.14,SSW,203,1.1,1.2,81,0.00,CLR,,0.00,WeatherDisplay:10.37,2013-08-15 13:10:00,
2013-08-15 08:11:00,59.1,52.9,30.14,SW,233,0.5,1.2,80,0.00,CLR,,0.00,WeatherDisplay:10.37,2013-08-15 13:11:00,
2013-08-15 08:12:00,59.2,53.0,30.14,WSW,248,1.2,2.0,80,0.00,CLR,,0.00,WeatherDisplay:10.37,2013-08-15 13:12:00,
2013-08-15 08:15:00,59.3,53.1,30.14,SW,216,1.4,2.3,80,0.00,CLR,,0.00,WeatherDisplay:10.37,2013-08-15 13:15:00,
2013-08-15 08:16:00,59.4,53.2,30.14,WSW,253,1.3,2.3,80,0.00,CLR,,0.00,WeatherDisplay:10.37,2013-08-15 13:16:00,
2013-08-15 08:17:00,59.3,53.1,30.14,SW,233,1.4,2.3,80,0.00,CLR,,0.00,WeatherDisplay:10.37,2013-08-15 13:17:00,
2013-08-15 08:20:00,59.5,53.0,30.14,SW,215,0.8,2.3,79,0.00,CLR,,0.00,WeatherDisplay:10.37,2013-08-15 13:20:00,
2013-08-15 08:21:00,59.6,53.1,30.14,SSW,205,1.0,2.3,79,0.00,CLR,,0.00,WeatherDisplay:10.37,2013-08-15 13:21:00,
2013-08-15 08:22:00,59.7,53.2,30.14,SSW,210,0.1,1.4,79,0.00,CLR,,0.00,WeatherDisplay:10.37,2013-08-15 13:22:00,
2013-08-15 08:25:00,59.9,53.7,30.14,SW,216,0.0,0.0,80,0.00,CLR,,0.00,WeatherDisplay:10.37,2013-08-15 13:25:00,
2013-08-15 08:27:00,60.1,53.6,30.14,SW,216,0.0,0.0,79,0.00,CLR,,0.00,WeatherDisplay:10.37,2013-08-15 13:27:00,
2013-08-15 08:30:00,60.3,53.8,30.14,SW,216,0.0,0.0,79,0.00,CLR,,0.00,WeatherDisplay:10.37,2013-08-15 13:30:00,
2013-08-15 08:31:00,60.3,53.8,30.14,SW,216,0.0,0.0,79,0.00,CLR,,0.00,WeatherDisplay:10.37,2013-08-15 13:31:00,
2013-08-15 08:32:00,60.3,53.8,30.14,SW,216,0.0,0.0,79,0.00,CLR,,0.00,WeatherDisplay:10.37,2013-08-15 13:32:00,
2013-08-15 08:33:00,60.4,53.9,30.14,SW,216,0.0,0.0,79,0.00,CLR,,0.00,WeatherDisplay:10.37,2013-08-15 13:33:00,
2013-08-15 08:35:00,60.5,53.6,30.14,SW,216,0.0,0.0,78,0.00,CLR,,0.00,WeatherDisplay:10.37,2013-08-15 13:35:00,
2013-08-15 08:36:00,60.6,53.7,30.14,SW,230,0.3,1.4,78,0.00,CLR,,0.00,WeatherDisplay:10.37,2013-08-15 13:36:00,
2013-08-15 08:37:00,60.7,53.8,30.14,SW,233,1.5,2.3,78,0.00,CLR,,0.00,WeatherDisplay:10.37,2013-08-15 13:37:00,
2013-08-15 08:38:00,60.8,53.9,30.14,SW,233,1.1,2.3,78,0.00,CLR,,0.00,WeatherDisplay:10.37,2013-08-15 13:38:00,
2013-08-15 08:40:00,60.9,54.0,30.14,West,274,0.0,0.3,78,0.00,CLR,,0.00,WeatherDisplay:10.37,2013-08-15 13:40:00,
2013-08-15 08:41:00,60.9,54.0,30.14,WSW,243,0.6,1.2,78,0.00,CLR,,0.00,WeatherDisplay:10.37,2013-08-15 13:41:00,
2013-08-15 08:42:00,60.9,54.0,30.14,SSW,210,1.2,2.3,78,0.00,CLR,,0.00,WeatherDisplay:10.37,2013-08-15 13:42:00,
2013-08-15 08:43:00,60.9,53.6,30.14,West,280,1.0,2.3,77,0.00,CLR,,0.00,WeatherDisplay:10.37,2013-08-15 13:43:00,
2013-08-15 08:46:00,61.2,53.9,30.14,WSW,239,0.2,1.4,77,0.00,CLR,,0.00,WeatherDisplay:10.37,2013-08-15 13:46:00,
2013-08-15 08:47:00,61.2,53.9,30.14,WSW,257,1.7,3.0,77,0.00,CLR,,0.00,WeatherDisplay:10.37,2013-08-15 13:47:00,
2013-08-15 08:48:00,61.2,53.9,30.14,SSW,209,1.0,3.5,77,0.00,CLR,,0.00,WeatherDisplay:10.37,2013-08-15 13:48:00,
2013-08-15 08:51:00,61.3,53.7,30.14,SW,219,1.4,2.3,76,0.00,CLR,,0.00,WeatherDisplay:10.37,2013-08-15 13:51:00,
2013-08-15 08:52:00,61.3,53.7,30.14,SSW,213,0.9,2.3,76,0.00,CLR,,0.00,WeatherDisplay:10.37,2013-08-15 13:52:00,
2013-08-15 08:54:00,61.5,53.9,30.14,WSW,246,1.2,2.3,76,0.00,CLR,,0.00,WeatherDisplay:10.37,2013-08-15 13:54:00,
2013-08-15 08:56:00,61.5,53.9,30.14,WSW,258,1.7,2.3,76,0.00,CLR,,0.00,WeatherDisplay:10.37,2013-08-15 13:56:00,
2013-08-15 08:57:00,61.6,54.0,30.14,WSW,240,1.5,2.3,76,0.00,CLR,,0.00,WeatherDisplay:10.37,2013-08-15 13:57:00,
2013-08-15 08:59:00,61.8,53.8,30.14,WSW,253,2.3,2.5,75,0.00,CLR,,0.00,WeatherDisplay:10.37,2013-08-15 13:59:00,
2013-08-15 09:01:00,61.8,53.8,30.14,SW,216,0.3,1.7,75,0.00,CLR,,0.00,WeatherDisplay:10.37,2013-08-15 14:01:00,
2013-08-15 09:02:00,61.9,53.9,30.14,WSW,247,0.9,1.4,75,0.00,CLR,,0.00,WeatherDisplay:10.37,2013-08-15 14:02:00,
2013-08-15 09:05:00,62.0,54.0,30.14,SW,219,1.3,2.3,75,0.00,CLR,,0.00,WeatherDisplay:10.37,2013-08-15 14:05:00,
2013-08-15 09:07:00,62.2,54.2,30.14,WSW,246,1.7,2.4,75,0.00,CLR,,0.00,WeatherDisplay:10.37,2013-08-15 14:07:00,
2013-08-15 09:08:00,62.1,53.7,30.14,West,278,1.7,2.3,74,0.00,CLR,,0.00,WeatherDisplay:10.37,2013-08-15 14:08:00,
2013-08-15 09:10:00,62.4,54.0,30.14,WNW,296,0.2,0.9,74,0.00,CLR,,0.00,WeatherDisplay:10.37,2013-08-15 14:10:00,
2013-08-15 09:12:00,62.5,54.1,30.15,SW,236,0.6,2.2,74,0.00,CLR,,0.00,WeatherDisplay:10.37,2013-08-15 14:12:00,
2013-08-15 09:13:00,62.6,54.2,30.15,SW,229,2.1,3.5,74,0.00,CLR,,0.00,WeatherDisplay:10.37,2013-08-15 14:13:00,
2013-08-15 09:16:00,62.8,54.4,30.15,WSW,241,2.2,2.3,74,0.00,CLR,,0.00,WeatherDisplay:10.37,2013-08-15 14:16:00,
2013-08-15 09:17:00,62.9,54.5,30.15,SW,232,1.9,3.5,74,0.00,CLR,,0.00,WeatherDisplay:10.37,2013-08-15 14:17:00,
2013-08-15 09:18:00,63.0,54.6,30.14,WSW,258,2.8,4.6,74,0.00,CLR,,0.00,WeatherDisplay:10.37,2013-08-15 14:18:00,
2013-08-15 09:21:00,63.2,54.4,30.14,WNW,288,0.3,1.9,73,0.00,CLR,,0.00,WeatherDisplay:10.37,2013-08-15 14:21:00,
2013-08-15 09:22:00,63.3,54.5,30.15,WNW,301,0.8,2.3,73,0.00,CLR,,0.00,WeatherDisplay:10.37,2013-08-15 14:22:00,
2013-08-15 09:23:00,63.4,54.6,30.14,NW,322,0.8,1.6,73,0.00,CLR,,0.00,WeatherDisplay:10.37,2013-08-15 14:23:00,
2013-08-15 09:26:00,63.5,54.3,30.14,NNW,346,1.1,2.3,72,0.00,CLR,,0.00,WeatherDisplay:10.37,2013-08-15 14:26:00,
2013-08-15 09:27:00,63.6,54.4,30.14,NNW,346,0.0,2.3,72,0.00,CLR,,0.00,WeatherDisplay:10.37,2013-08-15 14:27:00,
2013-08-15 09:28:00,63.8,54.6,30.14,NNW,346,0.0,0.0,72,0.00,CLR,,0.00,WeatherDisplay:10.37,2013-08-15 14:28:00,
2013-08-15 09:32:00,64.0,54.8,30.14,NNW,346,0.0,0.0,72,0.00,CLR,,0.00,WeatherDisplay:10.37,2013-08-15 14:32:00,
2013-08-15 09:33:00,64.0,54.8,30.14,NNW,346,0.0,0.0,72,0.00,CLR,,0.00,WeatherDisplay:10.37,2013-08-15 14:33:00,
2013-08-15 09:37:00,64.3,54.7,30.14,NNW,346,0.0,0.0,71,0.00,CLR,,0.00,WeatherDisplay:10.37,2013-08-15 14:37:00,
2013-08-15 09:38:00,64.5,54.9,30.14,West,277,0.2,0.0,71,0.00,CLR,,0.00,WeatherDisplay:10.37,2013-08-15 14:38:00,
2013-08-15 09:43:00,64.8,54.8,30.15,SW,219,0.9,2.3,70,0.00,CLR,,0.00,WeatherDisplay:10.37,2013-08-15 14:43:00,
2013-08-15 09:44:00,64.8,54.8,30.14,SSW,205,0.8,2.3,70,0.00,CLR,,0.00,WeatherDisplay:10.37,2013-08-15 14:44:00,
2013-08-15 09:45:00,65.0,55.0,30.14,SSW,213,0.9,2.3,70,0.00,CLR,,0.00,WeatherDisplay:10.37,2013-08-15 14:45:00,
2013-08-15 09:50:00,65.7,55.6,30.14,SW,226,1.2,3.0,70,0.00,CLR,,0.00,WeatherDisplay:10.37,2013-08-15 14:50:00,
2013-08-15 09:51:00,65.7,55.2,30.14,SSW,198,0.2,3.5,69,0.00,CLR,,0.00,WeatherDisplay:10.37,2013-08-15 14:51:00,
2013-08-15 09:52:00,65.9,55.4,30.14,SSW,198,0.1,2.3,69,0.00,CLR,,0.00,WeatherDisplay:10.37,2013-08-15 14:52:00,
2013-08-15 09:53:00,66.0,55.1,30.14,WSW,240,2.6,3.5,68,0.00,CLR,,0.00,WeatherDisplay:10.37,2013-08-15 14:53:00,
2013-08-15 09:54:00,66.0,55.1,30.14,SSW,212,1.1,2.3,68,0.00,CLR,,0.00,WeatherDisplay:10.37,2013-08-15 14:54:00,
2013-08-15 09:55:00,66.1,55.2,30.14,ESE,104,0.4,2.3,68,0.00,CLR,,0.00,WeatherDisplay:10.37,2013-08-15 14:55:00,
2013-08-15 09:57:00,66.3,55.4,30.14,SE,130,0.6,1.4,68,0.00,CLR,,0.00,WeatherDisplay:10.37,2013-08-15 14:57:00,
2013-08-15 09:59:00,66.7,55.8,30.14,West,268,2.4,3.5,68,0.00,CLR,,0.00,WeatherDisplay:10.37,2013-08-15 14:59:00,
2013-08-15 10:01:00,66.8,55.5,30.14,SW,215,1.3,2.4,67,0.00,CLR,,0.00,WeatherDisplay:10.37,2013-08-15 15:01:00,
2013-08-15 10:03:00,66.9,55.6,30.14,West,280,0.0,1.2,67,0.00,CLR,,0.00,WeatherDisplay:10.37,2013-08-15 15:03:00,
2013-08-15 10:04:00,67.1,55.4,30.14,West,280,0.0,0.0,66,0.00,CLR,,0.00,WeatherDisplay:10.37,2013-08-15 15:04:00,
2013-08-15 10:05:00,67.1,55.4,30.14,West,280,0.0,0.0,66,0.00,CLR,,0.00,WeatherDisplay:10.37,2013-08-15 15:05:00,
2013-08-15 10:06:00,67.1,55.4,30.14,West,280,0.0,0.0,66,0.00,CLR,,0.00,WeatherDisplay:10.37,2013-08-15 15:06:00,
2013-08-15 10:08:00,67.1,55.4,30.14,West,280,0.0,0.0,66,0.00,CLR,,0.00,WeatherDisplay:10.37,2013-08-15 15:08:00,
2013-08-15 10:09:00,67.2,55.5,30.14,West,280,0.0,0.0,66,0.00,CLR,,0.00,WeatherDisplay:10.37,2013-08-15 15:09:00,
2013-08-15 10:10:00,67.1,55.4,30.14,WSW,253,0.1,2.7,66,0.00,CLR,,0.00,WeatherDisplay:10.37,2013-08-15 15:10:00,
2013-08-15 10:11:00,67.2,55.0,30.14,WSW,253,2.0,3.5,65,0.00,CLR,,0.00,WeatherDisplay:10.37,2013-08-15 15:11:00,
2013-08-15 10:14:00,67.3,55.1,30.14,WSW,239,0.0,2.3,65,0.00,CLR,,0.00,WeatherDisplay:10.37,2013-08-15 15:14:00,
2013-08-15 10:15:00,67.4,55.2,30.14,WSW,239,0.0,0.0,65,0.00,CLR,,0.00,WeatherDisplay:10.37,2013-08-15 15:15:00,
2013-08-15 10:16:00,67.4,55.2,30.14,WSW,239,0.0,0.0,65,0.00,CLR,,0.00,WeatherDisplay:10.37,2013-08-15 15:16:00,
2013-08-15 10:20:00,67.5,55.3,30.14,WSW,248,1.9,3.5,65,0.00,CLR,,0.00,WeatherDisplay:10.37,2013-08-15 15:20:00,
2013-08-15 10:21:00,67.7,55.5,30.14,WSW,248,0.0,2.3,65,0.00,CLR,,0.00,WeatherDisplay:10.37,2013-08-15 15:21:00,
2013-08-15 10:22:00,67.7,55.1,30.14,WSW,248,0.0,0.0,64,0.00,CLR,,0.00,WeatherDisplay:10.37,2013-08-15 15:22:00,
2013-08-15 10:25:00,67.9,54.8,30.14,WSW,248,0.0,0.0,63,0.00,CLR,,0.00,WeatherDisplay:10.37,2013-08-15 15:25:00,
2013-08-15 10:26:00,67.8,54.7,30.14,WSW,248,0.0,0.0,63,0.00,CLR,,0.00,WeatherDisplay:10.37,2013-08-15 15:26:00,
2013-08-15 10:27:00,68.0,54.9,30.14,SW,222,0.7,1.2,63,0.00,CLR,,0.00,WeatherDisplay:10.37,2013-08-15 15:27:00,
2013-08-15 10:30:00,68.1,55.0,30.14,SSW,202,0.0,0.0,63,0.00,CLR,,0.00,WeatherDisplay:10.37,2013-08-15 15:30:00,
2013-08-15 10:31:00,68.2,55.1,30.14,SSW,202,0.0,0.0,63,0.00,CLR,,0.00,WeatherDisplay:10.37,2013-08-15 15:31:00,
2013-08-15 10:32:00,68.2,54.7,30.14,SSW,202,0.0,0.0,62,0.00,CLR,,0.00,WeatherDisplay:10.37,2013-08-15 15:32:00,
2013-08-15 10:35:00,68.4,54.9,30.14,SSW,202,0.0,0.0,62,0.00,CLR,,0.00,WeatherDisplay:10.37,2013-08-15 15:35:00,
2013-08-15 10:36:00,68.4,54.9,30.14,SSW,202,0.0,0.0,62,0.00,CLR,,0.00,WeatherDisplay:10.37,2013-08-15 15:36:00,
2013-08-15 10:37:00,68.4,54.9,30.14,SSW,202,0.0,0.0,62,0.00,CLR,,0.00,WeatherDisplay:10.37,2013-08-15 15:37:00,
2013-08-15 10:40:00,68.5,55.4,30.14,SW,226,0.5,2.3,63,0.00,CLR,,0.00,WeatherDisplay:10.37,2013-08-15 15:40:00,
2013-08-15 10:41:00,68.5,55.4,30.14,SSW,196,2.3,2.9,63,0.00,CLR,,0.00,WeatherDisplay:10.37,2013-08-15 15:41:00,
2013-08-15 10:42:00,68.5,55.4,30.14,SSW,206,1.5,3.5,63,0.00,CLR,,0.00,WeatherDisplay:10.37,2013-08-15 15:42:00,
2013-08-15 10:43:00,68.7,55.6,30.14,SSW,206,0.0,1.2,63,0.00,CLR,,0.00,WeatherDisplay:10.37,2013-08-15 15:43:00,
2013-08-15 10:46:00,68.7,55.2,30.14,SSW,206,0.0,0.0,62,0.00,CLR,,0.00,WeatherDisplay:10.37,2013-08-15 15:46:00,
2013-08-15 10:47:00,68.7,55.2,30.14,SSW,206,0.0,0.0,62,0.00,CLR,,0.00,WeatherDisplay:10.37,2013-08-15 15:47:00,
2013-08-15 10:48:00,68.8,55.2,30.14,WSW,254,1.5,4.6,62,0.00,CLR,,0.00,WeatherDisplay:10.37,2013-08-15 15:48:00,
2013-08-15 10:51:00,68.9,54.4,30.14,West,264,3.1,4.6,60,0.00,CLR,,0.00,WeatherDisplay:10.37,2013-08-15 15:51:00,
2013-08-15 10:52:00,68.9,54.4,30.14,West,264,0.2,3.5,60,0.00,CLR,,0.00,WeatherDisplay:10.37,2013-08-15 15:52:00,
2013-08-15 10:53:00,68.9,54.4,30.14,NW,326,2.2,3.7,60,0.00,CLR,,0.00,WeatherDisplay:10.37,2013-08-15 15:53:00,
2013-08-15 10:56:00,69.0,54.1,30.14,NW,325,0.0,0.0,59,0.00,CLR,,0.00,WeatherDisplay:10.37,2013-08-15 15:56:00,
2013-08-15 10:57:00,68.9,54.0,30.14,NNW,335,0.7,1.2,59,0.00,CLR,,0.00,WeatherDisplay:10.37,2013-08-15 15:57:00,
2013-08-15 10:58:00,68.9,54.0,30.14,NNE,16,1.4,1.4,59,0.00,CLR,,0.00,WeatherDisplay:10.37,2013-08-15 15:58:00,
2013-08-15 10:59:00,69.0,54.1,30.14,NNE,16,0.5,2.3,59,0.00,CLR,,0.00,WeatherDisplay:10.37,2013-08-15 15:59:00,
2013-08-15 11:01:00,69.0,54.1,30.14,NNE,16,0.0,0.0,59,0.00,CLR,,0.00,WeatherDisplay:10.37,2013-08-15 16:01:00,
2013-08-15 11:03:00,69.0,54.5,30.14,NNW,342,2.0,3.2,60,0.00,CLR,,0.00,WeatherDisplay:10.37,2013-08-15 16:03:00,
2013-08-15 11:04:00,69.1,54.6,30.14,North,4,2.0,3.5,60,0.00,CLR,,0.00,WeatherDisplay:10.37,2013-08-15 16:04:00,
2013-08-15 11:07:00,69.3,54.4,30.13,NW,313,1.3,1.8,59,0.00,CLR,,0.00,WeatherDisplay:10.37,2013-08-15 16:07:00,
2013-08-15 11:08:00,69.2,54.3,30.13,NW,320,0.6,3.5,59,0.00,CLR,,0.00,WeatherDisplay:10.37,2013-08-15 16:08:00,
2013-08-15 11:09:00,69.3,54.4,30.13,NW,320,0.0,1.2,59,0.00,CLR,,0.00,WeatherDisplay:10.37,2013-08-15 16:09:00,
2013-08-15 11:12:00,69.5,54.5,30.13,SW,229,1.8,5.1,59,0.00,CLR,,0.00,WeatherDisplay:10.37,2013-08-15 16:12:00,
2013-08-15 11:13:00,69.5,55.0,30.13,SW,232,2.7,4.6,60,0.00,CLR,,0.00,WeatherDisplay:10.37,2013-08-15 16:13:00,
2013-08-15 11:14:00,69.5,55.0,30.13,SW,215,1.6,4.6,60,0.00,CLR,,0.00,WeatherDisplay:10.37,2013-08-15 16:14:00,
2013-08-15 11:20:00,69.9,54.9,30.13,SSW,199,1.9,4.6,59,0.00,CLR,,0.00,WeatherDisplay:10.37,2013-08-15 16:20:00,
2013-08-15 11:21:00,70.0,55.0,30.13,SW,222,3.5,5.8,59,0.00,CLR,,0.00,WeatherDisplay:10.37,2013-08-15 16:21:00,
2013-08-15 11:22:00,70.1,55.1,30.13,WSW,254,3.8,4.6,59,0.00,CLR,,0.00,WeatherDisplay:10.37,2013-08-15 16:22:00,
2013-08-15 11:26:00,70.3,54.3,30.13,SSW,193,0.9,4.6,57,0.00,CLR,,0.00,WeatherDisplay:10.37,2013-08-15 16:26:00,
2013-08-15 11:27:00,70.4,54.4,30.13,SW,226,0.7,4.7,57,0.00,CLR,,0.00,WeatherDisplay:10.37,2013-08-15 16:27:00,
2013-08-15 11:31:00,70.5,54.5,30.13,SSW,196,0.0,0.0,57,0.00,CLR,,0.00,WeatherDisplay:10.37,2013-08-15 16:31:00,
2013-08-15 11:32:00,70.7,54.2,30.13,SSW,196,0.0,0.0,56,0.00,CLR,,0.00,WeatherDisplay:10.37,2013-08-15 16:32:00,
2013-08-15 11:36:00,70.7,54.2,30.13,NE,35,1.9,4.6,56,0.00,CLR,,0.00,WeatherDisplay:10.37,2013-08-15 16:36:00,
2013-08-15 11:37:00,70.9,54.4,30.13,NE,35,0.2,3.5,56,0.00,CLR,,0.00,WeatherDisplay:10.37,2013-08-15 16:37:00,
2013-08-15 11:38:00,70.9,54.4,30.13,NE,35,0.0,0.0,56,0.00,CLR,,0.00,WeatherDisplay:10.37,2013-08-15 16:38:00,
2013-08-15 11:41:00,71.2,54.2,30.13,SW,230,0.6,3.4,55,0.00,CLR,,0.00,WeatherDisplay:10.37,2013-08-15 16:41:00,
2013-08-15 11:42:00,71.3,53.8,30.13,SSW,208,3.1,3.6,54,0.00,CLR,,0.00,WeatherDisplay:10.37,2013-08-15 16:42:00,
2013-08-15 11:43:00,71.3,53.8,30.13,SE,131,1.6,4.6,54,0.00,CLR,,0.00,WeatherDisplay:10.37,2013-08-15 16:43:00,
2013-08-15 11:46:00,71.4,53.4,30.12,West,268,5.6,6.9,53,0.00,CLR,,0.00,WeatherDisplay:10.37,2013-08-15 16:46:00,
2013-08-15 11:47:00,71.5,52.9,30.12,WSW,244,5.4,9.2,52,0.00,CLR,,0.00,WeatherDisplay:10.37,2013-08-15 16:47:00,
2013-08-15 11:48:00,71.6,52.5,30.12,SW,219,3.4,6.9,51,0.00,CLR,,0.00,WeatherDisplay:10.37,2013-08-15 16:48:00,
2013-08-15 11:51:00,71.4,52.9,30.12,SW,232,0.0,0.0,52,0.00,CLR,,0.00,WeatherDisplay:10.37,2013-08-15 16:51:00,
2013-08-15 11:52:00,71.6,53.0,30.12,SW,232,0.0,0.0,52,0.00,CLR,,0.00,WeatherDisplay:10.37,2013-08-15 16:52:00,
2013-08-15 11:54:00,71.6,53.0,30.12,South,178,0.8,2.3,52,0.00,CLR,,0.00,WeatherDisplay:10.37,2013-08-15 16:54:00,
2013-08-15 11:57:00,71.6,52.5,30.12,North,349,1.7,4.6,51,0.00,CLR,,0.00,WeatherDisplay:10.37,2013-08-15 16:57:00,
2013-08-15 11:59:00,71.7,52.1,30.12,West,280,2.2,4.6,50,0.00,CLR,,0.00,WeatherDisplay:10.37,2013-08-15 16:59:00,
2013-08-15 12:02:00,71.6,52.5,30.12,NW,319,1.5,2.3,51,0.00,CLR,,0.00,WeatherDisplay:10.37,2013-08-15 17:02:00,
2013-08-15 12:04:00,71.9,52.2,30.12,North,3,0.1,1.5,50,0.00,CLR,,0.00,WeatherDisplay:10.37,2013-08-15 17:04:00,
2013-08-15 12:07:00,72.1,52.4,30.12,NNW,342,0.4,2.3,50,0.00,CLR,,0.00,WeatherDisplay:10.37,2013-08-15 17:07:00,
2013-08-15 12:08:00,72.1,52.4,30.12,NNW,329,3.2,4.0,50,0.00,CLR,,0.00,WeatherDisplay:10.37,2013-08-15 17:08:00,
2013-08-15 12:10:00,72.1,51.9,30.12,WSW,247,1.9,4.6,49,0.00,CLR,,0.00,WeatherDisplay:10.37,2013-08-15 17:10:00,
2013-08-15 12:12:00,72.0,52.3,30.12,SW,232,1.3,4.6,50,0.00,CLR,,0.00,WeatherDisplay:10.37,2013-08-15 17:12:00,
2013-08-15 12:13:00,72.0,52.3,30.12,SSW,210,1.6,4.6,50,0.00,CLR,,0.00,WeatherDisplay:10.37,2013-08-15 17:13:00,
2013-08-15 12:15:00,71.9,52.2,30.12,NW,305,0.9,3.5,50,0.00,CLR,,0.00,WeatherDisplay:10.37,2013-08-15 17:15:00,
2013-08-15 12:18:00,72.2,52.5,30.12,SW,220,0.0,0.0,50,0.00,CLR,,0.00,WeatherDisplay:10.37,2013-08-15 17:18:00,
2013-08-15 12:23:00,72.5,52.8,30.12,WNW,298,1.2,5.8,50,0.00,CLR,,0.00,WeatherDisplay:10.37,2013-08-15 17:23:00,
2013-08-15 12:24:00,72.3,52.6,30.11,WSW,240,2.2,7.2,50,0.00,CLR,,0.00,WeatherDisplay:10.37,2013-08-15 17:24:00,
2013-08-15 12:25:00,72.3,52.6,30.11,WSW,239,2.6,6.9,50,0.00,CLR,,0.00,WeatherDisplay:10.37,2013-08-15 17:25:00,
2013-08-15 12:26:00,72.2,52.0,30.12,WSW,247,2.9,6.9,49,0.00,CLR,,0.00,WeatherDisplay:10.37,2013-08-15 17:26:00,
2013-08-15 12:27:00,72.4,52.2,30.11,SW,223,2.3,3.5,49,0.00,CLR,,0.00,WeatherDisplay:10.37,2013-08-15 17:27:00,
2013-08-15 12:28:00,72.4,52.2,30.11,SW,223,0.8,2.3,49,0.00,CLR,,0.00,WeatherDisplay:10.37,2013-08-15 17:28:00,
2013-08-15 12:30:00,72.3,52.6,30.11,SSW,205,0.5,1.2,50,0.00,CLR,,0.00,WeatherDisplay:10.37,2013-08-15 17:30:00,
2013-08-15 12:31:00,72.3,52.6,30.11,SW,232,0.6,3.8,50,0.00,CLR,,0.00,WeatherDisplay:10.37,2013-08-15 17:31:00,
2013-08-15 12:34:00,72.3,52.6,30.11,WSW,251,0.1,3.5,50,0.00,CLR,,0.00,WeatherDisplay:10.37,2013-08-15 17:34:00,
2013-08-15 12:36:00,72.4,52.2,30.11,West,278,0.0,1.2,49,0.00,CLR,,0.00,WeatherDisplay:10.37,2013-08-15 17:36:00,
2013-08-15 12:38:00,72.4,52.7,30.11,SW,222,1.7,4.6,50,0.00,CLR,,0.00,WeatherDisplay:10.37,2013-08-15 17:38:00,
2013-08-15 12:39:00,72.4,52.7,30.11,SW,222,0.5,3.5,50,0.00,CLR,,0.00,WeatherDisplay:10.37,2013-08-15 17:39:00,
2013-08-15 12:45:00,72.5,52.8,30.11,North,4,2.7,4.6,50,0.00,CLR,,0.00,WeatherDisplay:10.37,2013-08-15 17:45:00,
2013-08-15 12:47:00,72.6,52.9,30.11,NE,55,3.2,4.6,50,0.00,CLR,,0.00,WeatherDisplay:10.37,2013-08-15 17:47:00,
2013-08-15 12:50:00,73.0,52.7,30.11,ESE,121,0.5,2.3,49,0.00,CLR,,0.00,WeatherDisplay:10.37,2013-08-15 17:50:00,
2013-08-15 12:52:00,73.1,52.8,30.11,SW,234,0.1,1.2,49,0.00,CLR,,0.00,WeatherDisplay:10.37,2013-08-15 17:52:00,
2013-08-15 12:54:00,73.3,52.4,30.11,SSW,195,0.0,2.3,48,0.00,CLR,,0.00,WeatherDisplay:10.37,2013-08-15 17:54:00,
2013-08-15 12:55:00,73.8,52.9,30.11,SW,226,0.9,3.8,48,0.00,CLR,,0.00,WeatherDisplay:10.37,2013-08-15 17:55:00,
2013-08-15 12:56:00,73.8,52.9,30.11,NW,315,2.6,3.5,48,0.00,CLR,,0.00,WeatherDisplay:10.37,2013-08-15 17:56:00,
2013-08-15 12:57:00,73.9,53.0,30.10,North,353,0.9,4.6,48,0.00,CLR,,0.00,WeatherDisplay:10.37,2013-08-15 17:57:00,
2013-08-15 12:59:00,74.1,52.0,30.10,WSW,237,1.6,3.5,46,0.00,CLR,,0.00,WeatherDisplay:10.37,2013-08-15 17:59:00,
2013-08-15 13:00:00,74.0,51.9,30.10,SW,215,0.9,2.3,46,0.00,CLR,,0.00,WeatherDisplay:10.37,2013-08-15 18:00:00,
2013-08-15 13:01:00,74.2,52.1,30.10,WSW,240,0.8,3.5,46,0.00,CLR,,0.00,WeatherDisplay:10.37,2013-08-15 18:01:00,
2013-08-15 13:03:00,74.2,51.5,30.10,WSW,240,0.0,0.0,45,0.00,CLR,,0.00,WeatherDisplay:10.37,2013-08-15 18:03:00,
2013-08-15 13:05:00,74.3,51.6,30.10,SW,224,1.0,4.6,45,0.00,CLR,,0.00,WeatherDisplay:10.37,2013-08-15 18:05:00,
2013-08-15 13:06:00,74.3,51.6,30.10,NE,48,1.0,4.6,45,0.00,CLR,,0.00,WeatherDisplay:10.37,2013-08-15 18:06:00,
2013-08-15 13:07:00,74.2,51.5,30.10,NE,47,1.2,3.5,45,0.00,CLR,,0.00,WeatherDisplay:10.37,2013-08-15 18:07:00,
2013-08-15 13:08:00,74.2,51.5,30.10,NW,326,2.1,5.2,45,0.00,CLR,,0.00,WeatherDisplay:10.37,2013-08-15 18:08:00,
2013-08-15 13:10:00,74.2,50.9,30.10,NW,323,3.6,5.8,44,0.00,CLR,,0.00,WeatherDisplay:10.37,2013-08-15 18:10:00,
2013-08-15 13:11:00,74.2,50.9,30.10,SSW,195,2.0,5.8,44,0.00,CLR,,0.00,WeatherDisplay:10.37,2013-08-15 18:11:00,
2013-08-15 13:12:00,74.2,50.9,30.10,SSW,195,0.5,3.5,44,0.00,CLR,,0.00,WeatherDisplay:10.37,2013-08-15 18:12:00,
2013-08-15 13:14:00,74.1,50.2,30.10,NW,315,4.1,5.8,43,0.00,CLR,,0.00,WeatherDisplay:10.37,2013-08-15 18:14:00,
2013-08-15 13:16:00,74.0,50.1,30.10,NNW,332,0.1,5.8,43,0.00,CLR,,0.00,WeatherDisplay:10.37,2013-08-15 18:16:00,
2013-08-15 13:17:00,74.1,50.2,30.10,NNW,332,0.0,0.0,43,0.00,CLR,,0.00,WeatherDisplay:10.37,2013-08-15 18:17:00,
2013-08-15 13:21:00,74.3,50.4,30.10,NE,48,3.5,6.9,43,0.00,CLR,,0.00,WeatherDisplay:10.37,2013-08-15 18:21:00,
2013-08-15 13:22:00,74.3,50.4,30.10,North,360,3.5,5.8,43,0.00,CLR,,0.00,WeatherDisplay:10.37,2013-08-15 18:22:00,
2013-08-15 13:27:00,74.6,50.6,30.09,NW,316,2.1,6.9,43,0.00,CLR,,0.00,WeatherDisplay:10.37,2013-08-15 18:27:00,
2013-08-15 13:28:00,74.5,50.5,30.09,North,8,2.7,8.1,43,0.00,CLR,,0.00,WeatherDisplay:10.37,2013-08-15 18:28:00,
2013-08-15 13:29:00,74.6,50.6,30.09,North,360,3.4,8.1,43,0.00,CLR,,0.00,WeatherDisplay:10.37,2013-08-15 18:29:00,
2013-08-15 13:33:00,74.4,50.4,30.09,West,264,0.5,3.5,43,0.00,CLR,,0.00,WeatherDisplay:10.37,2013-08-15 18:33:00,
2013-08-15 13:34:00,74.6,50.6,30.09,NNW,337,1.1,2.3,43,0.00,CLR,,0.00,WeatherDisplay:10.37,2013-08-15 18:34:00,
2013-08-15 13:35:00,74.4,50.4,30.09,NNW,329,2.5,2.8,43,0.00,CLR,,0.00,WeatherDisplay:10.37,2013-08-15 18:35:00,
2013-08-15 13:38:00,74.4,50.4,30.09,NW,308,2.2,4.0,43,0.00,CLR,,0.00,WeatherDisplay:10.37,2013-08-15 18:38:00,
2013-08-15 13:39:00,74.3,49.7,30.10,NNW,347,3.6,5.2,42,0.00,CLR,,0.00,WeatherDisplay:10.37,2013-08-15 18:39:00,
2013-08-15 13:40:00,74.4,49.8,30.09,NW,325,3.5,5.8,42,0.00,CLR,,0.00,WeatherDisplay:10.37,2013-08-15 18:40:00,
2013-08-15 13:43:00,74.2,49.0,30.09,WNW,299,2.0,2.4,41,0.00,CLR,,0.00,WeatherDisplay:10.37,2013-08-15 18:43:00,
2013-08-15 13:44:00,74.3,49.7,30.09,NW,326,1.6,3.5,42,0.00,CLR,,0.00,WeatherDisplay:10.37,2013-08-15 18:44:00,
2013-08-15 13:45:00,74.2,49.6,30.09,SSW,208,2.1,3.5,42,0.00,CLR,,0.00,WeatherDisplay:10.37,2013-08-15 18:45:00,
2013-08-15 13:46:00,74.4,49.2,30.09,NW,305,2.2,3.5,41,0.00,CLR,,0.00,WeatherDisplay:10.37,2013-08-15 18:46:00,
2013-08-15 13:48:00,74.7,48.8,30.09,WSW,250,1.1,3.5,40,0.00,CLR,,0.00,WeatherDisplay:10.37,2013-08-15 18:48:00,
2013-08-15 13:49:00,74.8,48.9,30.09,NW,311,2.4,4.7,40,0.00,CLR,,0.00,WeatherDisplay:10.37,2013-08-15 18:49:00,
2013-08-15 13:50:00,74.8,48.2,30.09,NW,313,2.9,5.8,39,0.00,CLR,,0.00,WeatherDisplay:10.37,2013-08-15 18:50:00,
2013-08-15 13:51:00,74.8,47.5,30.09,NW,312,2.2,3.5,38,0.00,CLR,,0.00,WeatherDisplay:10.37,2013-08-15 18:51:00,
2013-08-15 13:52:00,74.9,47.6,30.09,NW,319,0.2,2.3,38,0.00,CLR,,0.00,WeatherDisplay:10.37,2013-08-15 18:52:00,
2013-08-15 13:54:00,75.0,47.7,30.09,NW,319,0.0,0.0,38,0.00,CLR,,0.00,WeatherDisplay:10.37,2013-08-15 18:54:00,
2013-08-15 13:56:00,75.1,49.1,30.09,WNW,295,0.6,3.5,40,0.00,CLR,,0.00,WeatherDisplay:10.37,2013-08-15 18:56:00,
2013-08-15 13:58:00,74.9,48.9,30.09,WNW,287,2.0,4.9,40,0.00,CLR,,0.00,WeatherDisplay:10.37,2013-08-15 18:58:00,
2013-08-15 13:59:00,74.9,48.9,30.09,NW,326,2.0,3.5,40,0.00,CLR,,0.00,WeatherDisplay:10.37,2013-08-15 18:59:00,
2013-08-15 14:04:00,74.8,50.2,30.09,NNW,346,2.7,4.6,42,0.00,CLR,,0.00,WeatherDisplay:10.37,2013-08-15 19:04:00,
2013-08-15 14:05:00,74.7,50.1,30.09,NW,319,0.9,4.6,42,0.00,CLR,,0.00,WeatherDisplay:10.37,2013-08-15 19:05:00,
2013-08-15 14:10:00,74.4,49.8,30.09,West,274,0.0,0.0,42,0.00,CLR,,0.00,WeatherDisplay:10.37,2013-08-15 19:10:00,
2013-08-15 14:11:00,74.5,49.9,30.09,NW,309,1.2,3.1,42,0.00,CLR,,0.00,WeatherDisplay:10.37,2013-08-15 19:11:00,
2013-08-15 14:15:00,74.4,49.2,30.09,NW,326,0.7,1.2,41,0.00,CLR,,0.00,WeatherDisplay:10.37,2013-08-15 19:15:00,
2013-08-15 14:16:00,74.6,49.3,30.09,WNW,284,0.7,2.3,41,0.00,CLR,,0.00,WeatherDisplay:10.37,2013-08-15 19:16:00,
2013-08-15 14:21:00,74.8,49.5,30.08,West,268,0.3,2.1,41,0.00,CLR,,0.00,WeatherDisplay:10.37,2013-08-15 19:21:00,
2013-08-15 14:23:00,75.0,49.7,30.09,North,353,0.0,2.3,41,0.00,CLR,,0.00,WeatherDisplay:10.37,2013-08-15 19:23:00,
2013-08-15 14:25:00,75.2,49.2,30.09,NNE,20,2.4,6.9,40,0.00,CLR,,0.00,WeatherDisplay:10.37,2013-08-15 19:25:00,
2013-08-15 14:26:00,75.3,49.3,30.09,NW,315,3.2,4.6,40,0.00,CLR,,0.00,WeatherDisplay:10.37,2013-08-15 19:26:00,
2013-08-15 14:27:00,75.5,49.5,30.08,North,1,3.3,5.8,40,0.00,CLR,,0.00,WeatherDisplay:10.37,2013-08-15 19:27:00,
2013-08-15 14:29:00,75.7,49.0,30.09,NW,311,2.0,5.8,39,0.00,CLR,,0.00,WeatherDisplay:10.37,2013-08-15 19:29:00,
2013-08-15 14:31:00,76.0,50.6,30.08,NNW,343,0.8,1.2,41,0.00,CLR,,0.00,WeatherDisplay:10.37,2013-08-15 19:31:00,
2013-08-15 14:32:00,76.2,50.8,30.08,SW,223,0.9,2.3,41,0.00,CLR,,0.00,WeatherDisplay:10.37,2013-08-15 19:32:00,
2013-08-15 14:33:00,76.4,50.3,30.09,WNW,301,4.3,7.2,40,0.00,CLR,,0.00,WeatherDisplay:10.37,2013-08-15 19:33:00,
2013-08-15 14:34:00,76.4,49.6,30.09,WNW,301,3.7,6.9,39,0.00,CLR,,0.00,WeatherDisplay:10.37,2013-08-15 19:34:00,
2013-08-15 14:37:00,76.7,49.9,30.09,NNE,27,1.9,5.8,39,0.00,CLR,,0.00,WeatherDisplay:10.37,2013-08-15 19:37:00,
2013-08-15 14:39:00,76.7,49.9,30.08,WNW,287,3.0,5.8,39,0.00,CLR,,0.00,WeatherDisplay:10.37,2013-08-15 19:39:00,
2013-08-15 14:42:00,76.8,50.6,30.08,West,274,2.5,4.6,40,0.00,CLR,,0.00,WeatherDisplay:10.37,2013-08-15 19:42:00,
2013-08-15 14:44:00,77.1,50.9,30.08,NNW,342,1.1,6.9,40,0.00,CLR,,0.00,WeatherDisplay:10.37,2013-08-15 19:44:00,
2013-08-15 14:45:00,77.2,51.0,30.08,North,10,0.8,4.6,40,0.00,CLR,,0.00,WeatherDisplay:10.37,2013-08-15 19:45:00,
2013-08-15 14:47:00,77.5,50.6,30.08,WNW,289,4.8,6.9,39,0.00,CLR,,0.00,WeatherDisplay:10.37,2013-08-15 19:47:00,
2013-08-15 14:49:00,77.9,50.9,30.08,NE,55,0.4,3.5,39,0.00,CLR,,0.00,WeatherDisplay:10.37,2013-08-15 19:49:00,
2013-08-15 14:50:00,77.9,50.9,30.08,NNW,329,3.5,6.2,39,0.00,CLR,,0.00,WeatherDisplay:10.37,2013-08-15 19:50:00,
2013-08-15 14:52:00,78.2,50.5,30.08,West,263,2.1,5.8,38,0.00,CLR,,0.00,WeatherDisplay:10.37,2013-08-15 19:52:00,
2013-08-15 14:56:00,78.5,50.1,30.08,NW,309,2.5,5.8,37,0.00,CLR,,0.00,WeatherDisplay:10.37,2013-08-15 19:56:00,
2013-08-15 14:57:00,78.9,50.4,30.08,WNW,287,0.4,2.3,37,0.00,CLR,,0.00,WeatherDisplay:10.37,2013-08-15 19:57:00,
2013-08-15 14:58:00,78.9,50.4,30.08,WSW,256,0.6,2.3,37,0.00,CLR,,0.00,WeatherDisplay:10.37,2013-08-15 19:58:00,
2013-08-15 14:59:00,79.0,49.8,30.08,WNW,292,3.2,6.9,36,0.00,CLR,,0.00,WeatherDisplay:10.37,2013-08-15 19:59:00,
2013-08-15 15:01:00,79.2,49.2,30.08,NE,54,1.3,4.6,35,0.00,CLR,,0.00,WeatherDisplay:10.37,2013-08-15 20:01:00,
2013-08-15 15:05:00,79.4,49.4,30.08,NW,318,3.6,6.0,35,0.00,CLR,,0.00,WeatherDisplay:10.37,2013-08-15 20:05:00,
2013-08-15 15:07:00,79.5,49.4,30.08,North,1,0.1,5.8,35,0.00,CLR,,0.00,WeatherDisplay:10.37,2013-08-15 20:07:00,
2013-08-15 15:09:00,79.4,49.4,30.08,NE,34,0.9,3.5,35,0.00,CLR,,0.00,WeatherDisplay:10.37,2013-08-15 20:09:00,
2013-08-15 15:11:00,79.4,50.1,30.08,West,271,0.1,3.5,36,0.00,CLR,,0.00,WeatherDisplay:10.37,2013-08-15 20:11:00,
2013-08-15 15:12:00,79.6,50.3,30.08,SW,234,1.7,3.9,36,0.00,CLR,,0.00,WeatherDisplay:10.37,2013-08-15 20:12:00,
2013-08-15 15:14:00,79.5,49.4,30.08,WSW,247,3.9,5.8,35,0.00,CLR,,0.00,WeatherDisplay:10.37,2013-08-15 20:14:00,
2013-08-15 15:16:00,79.4,49.4,30.08,SW,215,1.0,4.6,35,0.00,CLR,,0.00,WeatherDisplay:10.37,2013-08-15 20:16:00,
2013-08-15 15:17:00,79.3,49.3,30.08,West,272,1.8,3.4,35,0.00,CLR,,0.00,WeatherDisplay:10.37,2013-08-15 20:17:00,
2013-08-15 15:19:00,79.0,49.8,30.08,NE,54,2.7,5.1,36,0.00,CLR,,0.00,WeatherDisplay:10.37,2013-08-15 20:19:00,
2013-08-15 15:21:00,78.8,49.6,30.08,WSW,258,3.6,6.9,36,0.00,CLR,,0.00,WeatherDisplay:10.37,2013-08-15 20:21:00,
2013-08-15 15:22:00,78.4,49.2,30.08,WSW,257,0.4,4.6,36,0.00,CLR,,0.00,WeatherDisplay:10.37,2013-08-15 20:22:00,
2013-08-15 15:24:00,78.2,49.8,30.08,WSW,257,0.0,0.0,37,0.00,CLR,,0.00,WeatherDisplay:10.37,2013-08-15 20:24:00,
2013-08-15 15:27:00,77.7,50.1,30.08,South,186,3.1,6.9,38,0.00,CLR,,0.00,WeatherDisplay:10.37,2013-08-15 20:27:00,
2013-08-15 15:29:00,77.3,49.7,30.08,SW,236,1.3,4.6,38,0.00,CLR,,0.00,WeatherDisplay:10.37,2013-08-15 20:29:00,
2013-08-15 15:33:00,76.1,50.0,30.08,NNE,31,1.4,4.6,40,0.00,CLR,,0.00,WeatherDisplay:10.37,2013-08-15 20:33:00,
2013-08-15 15:34:00,76.0,49.9,30.08,NNE,31,0.4,4.6,40,0.00,CLR,,0.00,WeatherDisplay:10.37,2013-08-15 20:34:00,
2013-08-15 15:35:00,75.8,50.4,30.08,NNE,31,0.0,0.0,41,0.00,CLR,,0.00,WeatherDisplay:10.37,2013-08-15 20:35:00,
2013-08-15 15:38:00,75.2,50.5,30.08,ENE,62,0.0,0.0,42,0.00,CLR,,0.00,WeatherDisplay:10.37,2013-08-15 20:38:00,
2013-08-15 15:39:00,75.1,50.4,30.08,ENE,62,0.0,0.0,42,0.00,CLR,,0.00,WeatherDisplay:10.37,2013-08-15 20:39:00,
2013-08-15 15:40:00,75.1,50.4,30.08,North,350,0.2,3.6,42,0.00,CLR,,0.00,WeatherDisplay:10.37,2013-08-15 20:40:00,
2013-08-15 15:44:00,74.3,50.4,30.08,NNE,30,0.0,0.0,43,0.00,CLR,,0.00,WeatherDisplay:10.37,2013-08-15 20:44:00,
2013-08-15 15:45:00,74.2,50.9,30.08,NNE,30,0.1,1.2,44,0.00,CLR,,0.00,WeatherDisplay:10.37,2013-08-15 20:45:00,
2013-08-15 15:49:00,73.7,51.0,30.08,NW,318,2.1,4.6,45,0.00,CLR,,0.00,WeatherDisplay:10.37,2013-08-15 20:49:00,
2013-08-15 15:50:00,73.6,50.9,30.08,WNW,291,2.0,3.5,45,0.00,CLR,,0.00,WeatherDisplay:10.37,2013-08-15 20:50:00,
2013-08-15 15:51:00,73.5,50.9,30.08,NW,322,2.2,3.5,45,0.00,CLR,,0.00,WeatherDisplay:10.37,2013-08-15 20:51:00,
2013-08-15 15:54:00,73.1,51.1,30.08,WNW,295,0.2,1.2,46,0.00,CLR,,0.00,WeatherDisplay:10.37,2013-08-15 20:54:00,
2013-08-15 15:55:00,73.0,51.0,30.08,WNW,295,0.0,1.2,46,0.00,CLR,,0.00,WeatherDisplay:10.37,2013-08-15 20:55:00,
2013-08-15 15:56:00,73.0,51.0,30.08,WNW,295,0.0,0.0,46,0.00,CLR,,0.00,WeatherDisplay:10.37,2013-08-15 20:56:00,
2013-08-15 15:57:00,72.9,50.9,30.08,WNW,295,0.0,0.0,46,0.00,CLR,,0.00,WeatherDisplay:10.37,2013-08-15 20:57:00,
2013-08-15 16:00:00,72.8,51.4,30.08,WNW,295,0.0,0.3,47,0.00,CLR,,0.00,WeatherDisplay:10.37,2013-08-15 21:00:00,
2013-08-15 16:02:00,72.5,51.1,30.08,NW,323,1.3,2.3,47,0.00,CLR,,0.00,WeatherDisplay:10.37,2013-08-15 21:02:00,
2013-08-15 16:03:00,72.6,51.2,30.08,WNW,292,1.4,2.3,47,0.00,CLR,,0.00,WeatherDisplay:10.37,2013-08-15 21:03:00,
2013-08-15 16:04:00,72.5,51.1,30.08,NW,312,0.1,2.3,47,0.00,CLR,,0.00,WeatherDisplay:10.37,2013-08-15 21:04:00,
2013-08-15 16:06:00,72.3,50.9,30.08,NW,312,0.0,0.0,47,0.00,CLR,,0.00,WeatherDisplay:10.37,2013-08-15 21:06:00,
2013-08-15 16:07:00,72.3,51.5,30.08,NW,312,0.0,0.0,48,0.00,CLR,,0.00,WeatherDisplay:10.37,2013-08-15 21:07:00,
2013-08-15 16:08:00,72.3,51.5,30.08,NW,312,0.0,0.0,48,0.00,CLR,,0.00,WeatherDisplay:10.37,2013-08-15 21:08:00,
2013-08-15 16:09:00,72.3,51.5,30.08,NW,312,0.0,0.0,48,0.00,CLR,,0.00,WeatherDisplay:10.37,2013-08-15 21:09:00,
2013-08-15 16:11:00,72.0,51.2,30.08,NW,312,0.0,0.0,48,0.00,CLR,,0.00,WeatherDisplay:10.37,2013-08-15 21:11:00,
2013-08-15 16:14:00,72.1,51.3,30.08,NW,312,0.0,0.0,48,0.00,CLR,,0.00,WeatherDisplay:10.37,2013-08-15 21:14:00,
2013-08-15 16:15:00,72.1,51.3,30.08,NE,48,0.4,3.0,48,0.00,CLR,,0.00,WeatherDisplay:10.37,2013-08-15 21:15:00,
2013-08-15 16:16:00,72.1,51.3,30.08,NE,35,0.4,3.5,48,0.00,CLR,,0.00,WeatherDisplay:10.37,2013-08-15 21:16:00,
2013-08-15 16:17:00,72.1,51.9,30.08,NE,35,0.0,3.5,49,0.00,CLR,,0.00,WeatherDisplay:10.37,2013-08-15 21:17:00,
2013-08-15 16:19:00,72.1,51.9,30.08,NE,35,0.0,0.0,49,0.00,CLR,,0.00,WeatherDisplay:10.37,2013-08-15 21:19:00,
2013-08-15 16:20:00,72.1,52.4,30.08,NE,35,0.0,0.0,50,0.00,CLR,,0.00,WeatherDisplay:10.37,2013-08-15 21:20:00,
2013-08-15 16:21:00,72.1,51.9,30.08,NE,35,0.0,0.0,49,0.00,CLR,,0.00,WeatherDisplay:10.37,2013-08-15 21:21:00,
2013-08-15 16:22:00,72.1,51.9,30.08,NE,35,0.0,0.0,49,0.00,CLR,,0.00,WeatherDisplay:10.37,2013-08-15 21:22:00,
2013-08-15 16:24:00,72.1,51.9,30.08,NE,35,0.0,0.0,49,0.00,CLR,,0.00,WeatherDisplay:10.37,2013-08-15 21:24:00,
2013-08-15 16:27:00,72.1,52.4,30.08,NE,35,0.0,0.0,50,0.00,CLR,,0.00,WeatherDisplay:10.37,2013-08-15 21:27:00,
2013-08-15 16:30:00,72.2,53.1,30.08,NE,35,0.0,0.0,51,0.00,CLR,,0.00,WeatherDisplay:10.37,2013-08-15 21:30:00,
2013-08-15 16:34:00,72.4,52.7,30.08,NE,35,0.0,0.0,50,0.00,CLR,,0.00,WeatherDisplay:10.37,2013-08-15 21:34:00,
2013-08-15 16:35:00,72.5,52.8,30.08,NE,35,0.0,0.0,50,0.00,CLR,,0.00,WeatherDisplay:10.37,2013-08-15 21:35:00,
2013-08-15 16:36:00,72.5,52.2,30.08,NE,35,0.0,0.0,49,0.00,CLR,,0.00,WeatherDisplay:10.37,2013-08-15 21:36:00,
2013-08-15 16:38:00,72.3,52.1,30.08,NE,35,0.0,0.0,49,0.00,CLR,,0.00,WeatherDisplay:10.37,2013-08-15 21:38:00,
2013-08-15 16:40:00,72.6,52.9,30.08,SSW,192,0.5,2.5,50,0.00,CLR,,0.00,WeatherDisplay:10.37,2013-08-15 21:40:00,
2013-08-15 16:42:00,72.7,51.9,30.08,SSW,192,0.0,0.0,48,0.00,CLR,,0.00,WeatherDisplay:10.37,2013-08-15 21:42:00,
2013-08-15 16:44:00,72.7,51.9,30.08,SSW,192,0.0,0.0,48,0.00,CLR,,0.00,WeatherDisplay:10.37,2013-08-15 21:44:00,
2013-08-15 16:45:00,72.7,51.9,30.08,South,185,0.9,2.3,48,0.00,CLR,,0.00,WeatherDisplay:10.37,2013-08-15 21:45:00,
2013-08-15 16:46:00,72.9,52.1,30.08,South,185,0.0,2.3,48,0.00,CLR,,0.00,WeatherDisplay:10.37,2013-08-15 21:46:00,
2013-08-15 16:47:00,73.0,52.1,30.08,South,185,0.0,0.0,48,0.00,CLR,,0.00,WeatherDisplay:10.37,2013-08-15 21:47:00,
2013-08-15 16:49:00,72.8,51.4,30.08,South,185,0.0,0.0,47,0.00,CLR,,0.00,WeatherDisplay:10.37,2013-08-15 21:49:00,
2013-08-15 16:50:00,72.8,51.4,30.08,South,185,0.0,0.0,47,0.00,CLR,,0.00,WeatherDisplay:10.37,2013-08-15 21:50:00,
2013-08-15 16:51:00,73.0,51.6,30.08,West,281,0.7,2.3,47,0.00,CLR,,0.00,WeatherDisplay:10.37,2013-08-15 21:51:00,
2013-08-15 16:52:00,73.0,51.6,30.08,SSE,150,1.2,2.3,47,0.00,CLR,,0.00,WeatherDisplay:10.37,2013-08-15 21:52:00,
2013-08-15 16:54:00,73.0,51.0,30.08,SSE,150,0.0,0.0,46,0.00,CLR,,0.00,WeatherDisplay:10.37,2013-08-15 21:54:00,
2013-08-15 16:56:00,73.0,51.0,30.08,SSE,150,0.0,0.0,46,0.00,CLR,,0.00,WeatherDisplay:10.37,2013-08-15 21:56:00,
2013-08-15 16:57:00,73.0,51.0,30.08,SW,219,0.9,1.1,46,0.00,CLR,,0.00,WeatherDisplay:10.37,2013-08-15 21:57:00,
2013-08-15 16:59:00,73.1,51.7,30.08,SW,219,0.0,0.0,47,0.00,CLR,,0.00,WeatherDisplay:10.37,2013-08-15 21:59:00,
2013-08-15 17:02:00,73.0,51.6,30.08,SSW,193,2.4,4.0,47,0.00,CLR,,0.00,WeatherDisplay:10.37,2013-08-15 22:02:00,
2013-08-15 17:03:00,73.1,51.7,30.08,WSW,254,1.8,3.5,47,0.00,CLR,,0.00,WeatherDisplay:10.37,2013-08-15 22:03:00,
2013-08-15 17:05:00,73.1,51.1,30.08,WSW,254,0.0,0.0,46,0.00,CLR,,0.00,WeatherDisplay:10.37,2013-08-15 22:05:00,
2013-08-15 17:06:00,73.1,51.1,30.08,WSW,254,0.0,0.0,46,0.00,CLR,,0.00,WeatherDisplay:10.37,2013-08-15 22:06:00,
2013-08-15 17:08:00,73.3,51.3,30.08,SSW,192,1.2,2.3,46,0.00,CLR,,0.00,WeatherDisplay:10.37,2013-08-15 22:08:00,
2013-08-15 17:10:00,73.3,51.8,30.08,SSW,210,1.0,2.3,47,0.00,CLR,,0.00,WeatherDisplay:10.37,2013-08-15 22:10:00,
2013-08-15 17:11:00,73.4,51.9,30.08,SSW,206,1.9,4.6,47,0.00,CLR,,0.00,WeatherDisplay:10.37,2013-08-15 22:11:00,
2013-08-15 17:13:00,73.7,52.2,30.08,West,274,2.0,3.8,47,0.00,CLR,,0.00,WeatherDisplay:10.37,2013-08-15 22:13:00,
2013-08-15 17:15:00,73.8,51.7,30.08,South,179,3.9,6.9,46,0.00,CLR,,0.00,WeatherDisplay:10.37,2013-08-15 22:15:00,
2013-08-15 17:16:00,73.8,51.7,30.08,SW,224,2.8,5.8,46,0.00,CLR,,0.00,WeatherDisplay:10.37,2013-08-15 22:16:00,
2013-08-15 17:18:00,73.9,51.8,30.08,SW,233,3.4,5.8,46,0.00,CLR,,0.00,WeatherDisplay:10.37,2013-08-15 22:18:00,
2013-08-15 17:19:00,74.0,51.9,30.08,SW,224,3.1,4.6,46,0.00,CLR,,0.00,WeatherDisplay:10.37,2013-08-15 22:19:00,
2013-08-15 17:20:00,74.0,51.3,30.08,SW,220,3.5,5.8,45,0.00,CLR,,0.00,WeatherDisplay:10.37,2013-08-15 22:20:00,
2013-08-15 17:21:00,74.0,51.3,30.08,SW,229,3.0,5.8,45,0.00,CLR,,0.00,WeatherDisplay:10.37,2013-08-15 22:21:00,
2013-08-15 17:22:00,74.1,51.4,30.08,SW,224,2.7,5.8,45,0.00,CLR,,0.00,WeatherDisplay:10.37,2013-08-15 22:22:00,
2013-08-15 17:23:00,74.1,51.4,30.08,SW,226,3.2,5.8,45,0.00,CLR,,0.00,WeatherDisplay:10.37,2013-08-15 22:23:00,
2013-08-15 17:24:00,74.1,51.4,30.08,SW,217,3.0,4.6,45,0.00,CLR,,0.00,WeatherDisplay:10.37,2013-08-15 22:24:00,
2013-08-15 17:26:00,74.2,51.5,30.08,SSW,202,2.2,4.6,45,0.00,CLR,,0.00,WeatherDisplay:10.37,2013-08-15 22:26:00,
2013-08-15 17:27:00,74.0,51.3,30.08,SW,217,3.0,4.6,45,0.00,CLR,,0.00,WeatherDisplay:10.37,2013-08-15 22:27:00,
2013-08-15 17:28:00,74.0,51.3,30.08,SSW,210,2.4,4.6,45,0.00,CLR,,0.00,WeatherDisplay:10.37,2013-08-15 22:28:00,
2013-08-15 17:29:00,74.0,51.3,30.08,SW,224,2.7,5.8,45,0.00,CLR,,0.00,WeatherDisplay:10.37,2013-08-15 22:29:00,
2013-08-15 17:31:00,74.0,51.3,30.08,WSW,241,1.4,3.5,45,0.00,CLR,,0.00,WeatherDisplay:10.37,2013-08-15 22:31:00,
2013-08-15 17:32:00,74.0,51.3,30.08,WSW,241,0.1,1.2,45,0.00,CLR,,0.00,WeatherDisplay:10.37,2013-08-15 22:32:00,
2013-08-15 17:33:00,73.9,51.2,30.08,WSW,251,1.9,2.4,45,0.00,CLR,,0.00,WeatherDisplay:10.37,2013-08-15 22:33:00,
2013-08-15 17:34:00,73.9,51.2,30.08,SSW,202,1.2,3.5,45,0.00,CLR,,0.00,WeatherDisplay:10.37,2013-08-15 22:34:00,
2013-08-15 17:36:00,73.8,51.1,30.08,SSW,202,0.0,0.0,45,0.00,CLR,,0.00,WeatherDisplay:10.37,2013-08-15 22:36:00,
2013-08-15 17:37:00,73.8,51.1,30.08,WSW,257,0.3,1.4,45,0.00,CLR,,0.00,WeatherDisplay:10.37,2013-08-15 22:37:00,
2013-08-15 17:38:00,73.8,51.1,30.08,SSW,198,0.6,2.3,45,0.00,CLR,,0.00,WeatherDisplay:10.37,2013-08-15 22:38:00,
2013-08-15 17:40:00,73.7,51.0,30.08,SSW,198,0.0,0.0,45,0.00,CLR,,0.00,WeatherDisplay:10.37,2013-08-15 22:40:00,
2013-08-15 17:41:00,73.7,51.0,30.08,SSW,198,0.0,0.0,45,0.00,CLR,,0.00,WeatherDisplay:10.37,2013-08-15 22:41:00,
2013-08-15 17:42:00,73.6,50.9,30.08,SSW,198,0.0,0.0,45,0.00,CLR,,0.00,WeatherDisplay:10.37,2013-08-15 22:42:00,
2013-08-15 17:43:00,73.6,50.9,30.08,SSW,198,0.0,0.0,45,0.00,CLR,,0.00,WeatherDisplay:10.37,2013-08-15 22:43:00,
2013-08-15 17:46:00,73.5,50.9,30.08,SSW,210,2.4,4.6,45,0.00,CLR,,0.00,WeatherDisplay:10.37,2013-08-15 22:46:00,
2013-08-15 17:47:00,73.6,50.9,30.08,SSW,209,2.0,3.5,45,0.00,CLR,,0.00,WeatherDisplay:10.37,2013-08-15 22:47:00,
2013-08-15 17:48:00,73.6,50.9,30.08,South,181,2.6,4.6,45,0.00,CLR,,0.00,WeatherDisplay:10.37,2013-08-15 22:48:00,
2013-08-15 17:49:00,73.6,50.9,30.08,SSW,205,0.2,2.3,45,0.00,CLR,,0.00,WeatherDisplay:10.37,2013-08-15 22:49:00,
2013-08-15 17:52:00,73.4,50.2,30.08,NW,311,3.4,8.1,44,0.00,CLR,,0.00,WeatherDisplay:10.37,2013-08-15 22:52:00,
2013-08-15 17:53:00,73.4,50.2,30.08,West,264,2.8,6.9,44,0.00,CLR,,0.00,WeatherDisplay:10.37,2013-08-15 22:53:00,
2013-08-15 17:54:00,73.5,50.2,30.08,West,260,3.0,5.8,44,0.00,CLR,,0.00,WeatherDisplay:10.37,2013-08-15 22:54:00,
2013-08-15 17:57:00,73.4,50.2,30.08,WSW,246,3.0,4.6,44,0.00,CLR,,0.00,WeatherDisplay:10.37,2013-08-15 22:57:00,
2013-08-15 17:58:00,73.4,50.2,30.08,WSW,251,3.3,4.6,44,0.00,CLR,,0.00,WeatherDisplay:10.37,2013-08-15 22:58:00,
2013-08-15 17:59:00,73.4,50.2,30.08,WSW,251,3.6,4.6,44,0.00,CLR,,0.00,WeatherDisplay:10.37,2013-08-15 22:59:00,
2013-08-15 18:03:00,73.3,50.1,30.08,WNW,282,3.3,8.1,44,0.00,CLR,,0.00,WeatherDisplay:10.37,2013-08-15 23:03:00,
2013-08-15 18:04:00,73.3,50.7,30.08,West,274,2.6,5.0,45,0.00,CLR,,0.00,WeatherDisplay:10.37,2013-08-15 23:04:00,
2013-08-15 18:05:00,73.3,50.7,30.08,SW,220,2.6,5.0,45,0.00,CLR,,0.00,WeatherDisplay:10.37,2013-08-15 23:05:00,
2013-08-15 18:08:00,73.1,49.9,30.08,WSW,243,3.6,6.9,44,0.00,CLR,,0.00,WeatherDisplay:10.37,2013-08-15 23:08:00,
2013-08-15 18:10:00,73.1,49.9,30.08,SSW,202,2.7,4.6,44,0.00,CLR,,0.00,WeatherDisplay:10.37,2013-08-15 23:10:00,
2013-08-15 18:11:00,73.1,49.9,30.08,NW,309,2.6,6.9,44,0.00,CLR,,0.00,WeatherDisplay:10.37,2013-08-15 23:11:00,
2013-08-15 18:13:00,73.1,49.9,30.08,West,260,2.8,4.6,44,0.00,CLR,,0.00,WeatherDisplay:10.37,2013-08-15 23:13:00,
2013-08-15 18:15:00,73.0,50.4,30.08,NW,309,0.6,1.2,45,0.00,CLR,,0.00,WeatherDisplay:10.37,2013-08-15 23:15:00,
2013-08-15 18:16:00,73.0,50.4,30.08,SSW,212,0.7,1.8,45,0.00,CLR,,0.00,WeatherDisplay:10.37,2013-08-15 23:16:00,
2013-08-15 18:18:00,73.0,50.4,30.08,SSW,196,2.2,4.6,45,0.00,CLR,,0.00,WeatherDisplay:10.37,2013-08-15 23:18:00,
2013-08-15 18:20:00,73.0,50.4,30.08,West,275,1.6,4.6,45,0.00,CLR,,0.00,WeatherDisplay:10.37,2013-08-15 23:20:00,
2013-08-15 18:22:00,72.9,50.3,30.08,West,265,3.5,5.8,45,0.00,CLR,,0.00,WeatherDisplay:10.37,2013-08-15 23:22:00,
2013-08-15 18:24:00,72.8,50.8,30.08,West,281,0.6,1.2,46,0.00,CLR,,0.00,WeatherDisplay:10.37,2013-08-15 23:24:00,
2013-08-15 18:25:00,72.7,50.7,30.08,West,263,1.5,3.5,46,0.00,CLR,,0.00,WeatherDisplay:10.37,2013-08-15 23:25:00,
2013-08-15 18:26:00,72.7,50.7,30.08,NW,304,1.0,2.3,46,0.00,CLR,,0.00,WeatherDisplay:10.37,2013-08-15 23:26:00,
2013-08-15 18:27:00,72.7,50.7,30.08,WSW,247,0.4,2.3,46,0.00,CLR,,0.00,WeatherDisplay:10.37,2013-08-15 23:27:00,
2013-08-15 18:31:00,72.4,51.0,30.08,WSW,241,0.1,2.3,47,0.00,CLR,,0.00,WeatherDisplay:10.37,2013-08-15 23:31:00,
2013-08-15 18:32:00,72.4,51.0,30.08,WSW,241,0.0,0.0,47,0.00,CLR,,0.00,WeatherDisplay:10.37,2013-08-15 23:32:00,
2013-08-15 18:34:00,72.3,50.9,30.08,SW,230,0.4,2.3,47,0.00,CLR,,0.00,WeatherDisplay:10.37,2013-08-15 23:34:00,
2013-08-15 18:36:00,72.3,50.9,30.08,WSW,253,0.1,0.0,47,0.00,CLR,,0.00,WeatherDisplay:10.37,2013-08-15 23:36:00,
2013-08-15 18:37:00,72.1,50.8,30.08,WSW,253,0.0,0.0,47,0.00,CLR,,0.00,WeatherDisplay:10.37,2013-08-15 23:37:00,
2013-08-15 18:38:00,72.1,50.8,30.08,West,267,1.3,1.9,47,0.00,CLR,,0.00,WeatherDisplay:10.37,2013-08-15 23:38:00,
2013-08-15 18:39:00,72.0,51.2,30.08,NW,305,1.4,3.5,48,0.00,CLR,,0.00,WeatherDisplay:10.37,2013-08-15 23:39:00,
2013-08-15 18:41:00,71.9,51.1,30.08,SSE,151,0.0,0.0,48,0.00,CLR,,0.00,WeatherDisplay:10.37,2013-08-15 23:41:00,
2013-08-15 18:42:00,71.9,51.1,30.08,SSE,151,0.0,0.0,48,0.00,CLR,,0.00,WeatherDisplay:10.37,2013-08-15 23:42:00,
2013-08-15 18:43:00,71.8,51.0,30.08,SSE,151,0.0,0.0,48,0.00,CLR,,0.00,WeatherDisplay:10.37,2013-08-15 23:43:00,
2013-08-15 18:44:00,71.8,51.0,30.08,SSE,151,0.0,0.0,48,0.00,CLR,,0.00,WeatherDisplay:10.37,2013-08-15 23:44:00,
2013-08-15 18:47:00,71.7,51.5,30.08,South,175,0.0,0.0,49,0.00,CLR,,0.00,WeatherDisplay:10.37,2013-08-15 23:47:00,
2013-08-15 18:48:00,71.6,51.4,30.08,South,175,0.0,0.0,49,0.00,CLR,,0.00,WeatherDisplay:10.37,2013-08-15 23:48:00,
2013-08-15 18:49:00,71.6,51.4,30.08,SW,230,0.7,1.2,49,0.00,CLR,,0.00,WeatherDisplay:10.37,2013-08-15 23:49:00,
2013-08-15 18:52:00,71.4,51.2,30.08,SW,232,0.2,1.2,49,0.00,CLR,,0.00,WeatherDisplay:10.37,2013-08-15 23:52:00,
2013-08-15 18:54:00,71.4,51.8,30.08,West,267,0.0,0.9,50,0.00,CLR,,0.00,WeatherDisplay:10.37,2013-08-15 23:54:00,
2013-08-15 18:57:00,71.3,51.7,30.08,SW,226,0.2,1.8,50,0.00,CLR,,0.00,WeatherDisplay:10.37,2013-08-15 23:57:00,
2013-08-15 18:58:00,71.2,51.6,30.08,WSW,243,1.2,2.3,50,0.00,CLR,,0.00,WeatherDisplay:10.37,2013-08-15 23:58:00,
2013-08-15 19:01:00,71.0,51.4,30.08,WSW,243,0.0,0.0,50,0.00,CLR,,0.00,WeatherDisplay:10.37,2013-08-16 00:01:00,
2013-08-15 19:03:00,71.0,52.0,30.08,WSW,243,0.0,0.0,51,0.00,CLR,,0.00,WeatherDisplay:10.37,2013-08-16 00:03:00,
2013-08-15 19:04:00,70.9,51.9,30.08,WSW,251,0.8,4.6,51,0.00,CLR,,0.00,WeatherDisplay:10.37,2013-08-16 00:04:00,
2013-08-15 19:07:00,71.0,52.0,30.08,SSW,206,0.0,0.0,51,0.00,CLR,,0.00,WeatherDisplay:10.37,2013-08-16 00:07:00,
2013-08-15 19:08:00,71.0,52.0,30.08,SSW,206,0.0,0.0,51,0.00,CLR,,0.00,WeatherDisplay:10.37,2013-08-16 00:08:00,
2013-08-15 19:09:00,70.9,51.9,30.08,SSW,206,0.0,0.0,51,0.00,CLR,,0.00,WeatherDisplay:10.37,2013-08-16 00:09:00,
2013-08-15 19:10:00,70.7,51.7,30.08,SSW,206,0.0,0.0,51,0.00,CLR,,0.00,WeatherDisplay:10.37,2013-08-16 00:10:00,
2013-08-15 19:12:00,70.8,51.8,30.08,SSW,206,0.0,0.0,51,0.00,CLR,,0.00,WeatherDisplay:10.37,2013-08-16 00:12:00,
2013-08-15 19:13:00,70.9,52.4,30.08,SSW,206,0.0,0.0,52,0.00,CLR,,0.00,WeatherDisplay:10.37,2013-08-16 00:13:00,
2013-08-15 19:14:00,70.7,52.2,30.08,SSW,206,0.0,0.0,52,0.00,CLR,,0.00,WeatherDisplay:10.37,2013-08-16 00:14:00,
2013-08-15 19:15:00,70.8,52.3,30.08,SSW,206,0.0,0.0,52,0.00,CLR,,0.00,WeatherDisplay:10.37,2013-08-16 00:15:00,
2013-08-15 19:17:00,70.5,52.0,30.08,SSW,206,0.0,0.0,52,0.00,CLR,,0.00,WeatherDisplay:10.37,2013-08-16 00:17:00,
2013-08-15 19:18:00,70.7,52.2,30.08,SSW,206,0.0,0.0,52,0.00,CLR,,0.00,WeatherDisplay:10.37,2013-08-16 00:18:00,
2013-08-15 19:20:00,70.6,52.1,30.08,SSW,206,0.0,0.0,52,0.00,CLR,,0.00,WeatherDisplay:10.37,2013-08-16 00:20:00,
2013-08-15 19:22:00,70.5,52.0,30.08,SSW,206,0.0,0.0,52,0.00,CLR,,0.00,WeatherDisplay:10.37,2013-08-16 00:22:00,
2013-08-15 19:23:00,70.5,52.0,30.08,SSW,206,0.0,0.0,52,0.00,CLR,,0.00,WeatherDisplay:10.37,2013-08-16 00:23:00,
2013-08-15 19:25:00,70.5,52.0,30.08,SSW,206,0.0,0.0,52,0.00,CLR,,0.00,WeatherDisplay:10.37,2013-08-16 00:25:00,
2013-08-15 19:27:00,70.5,52.0,30.08,SSW,206,0.0,0.0,52,0.00,CLR,,0.00,WeatherDisplay:10.37,2013-08-16 00:27:00,
2013-08-15 19:28:00,70.5,52.0,30.08,SSW,206,0.0,0.0,52,0.00,CLR,,0.00,WeatherDisplay:10.37,2013-08-16 00:28:00,
2013-08-15 19:29:00,70.3,51.8,30.08,SSW,206,0.0,0.0,52,0.00,CLR,,0.00,WeatherDisplay:10.37,2013-08-16 00:29:00,
2013-08-15 19:30:00,70.3,51.8,30.08,SSW,206,0.0,0.0,52,0.00,CLR,,0.00,WeatherDisplay:10.37,2013-08-16 00:30:00,
2013-08-15 19:32:00,70.3,51.8,30.08,SSW,206,0.0,0.0,52,0.00,CLR,,0.00,WeatherDisplay:10.37,2013-08-16 00:32:00,
2013-08-15 19:33:00,70.3,51.8,30.08,SSW,206,0.0,0.0,52,0.00,CLR,,0.00,WeatherDisplay:10.37,2013-08-16 00:33:00,
2013-08-15 19:34:00,70.2,51.7,30.08,SSW,206,0.0,0.0,52,0.00,CLR,,0.00,WeatherDisplay:10.37,2013-08-16 00:34:00,
2013-08-15 19:35:00,70.1,51.7,30.08,SSW,206,0.0,0.0,52,0.00,CLR,,0.00,WeatherDisplay:10.37,2013-08-16 00:35:00,
2013-08-15 19:38:00,69.8,51.4,30.08,SSW,206,0.0,0.0,52,0.00,CLR,,0.00,WeatherDisplay:10.37,2013-08-16 00:38:00,
2013-08-15 19:40:00,69.8,51.9,30.08,SSW,206,0.0,0.0,53,0.00,CLR,,0.00,WeatherDisplay:10.37,2013-08-16 00:40:00,
2013-08-15 19:42:00,69.6,51.7,30.08,SSW,206,0.0,0.0,53,0.00,CLR,,0.00,WeatherDisplay:10.37,2013-08-16 00:42:00,
2013-08-15 19:45:00,69.5,51.6,30.08,SSW,206,0.0,0.0,53,0.00,CLR,,0.00,WeatherDisplay:10.37,2013-08-16 00:45:00,
2013-08-15 19:46:00,69.4,51.5,30.09,SSW,206,0.0,0.0,53,0.00,CLR,,0.00,WeatherDisplay:10.37,2013-08-16 00:46:00,
2013-08-15 19:47:00,69.2,51.8,30.09,SSW,206,0.0,0.0,54,0.00,CLR,,0.00,WeatherDisplay:10.37,2013-08-16 00:47:00,
2013-08-15 19:50:00,69.0,51.7,30.08,SSW,206,0.0,0.0,54,0.00,CLR,,0.00,WeatherDisplay:10.37,2013-08-16 00:50:00,
2013-08-15 19:51:00,68.8,51.5,30.08,SSW,206,0.0,0.0,54,0.00,CLR,,0.00,WeatherDisplay:10.37,2013-08-16 00:51:00,
2013-08-15 19:52:00,68.7,51.9,30.08,SSW,206,0.0,0.0,55,0.00,CLR,,0.00,WeatherDisplay:10.37,2013-08-16 00:52:00,
2013-08-15 19:56:00,68.5,51.7,30.08,SSW,206,0.0,0.0,55,0.00,CLR,,0.00,WeatherDisplay:10.37,2013-08-16 00:56:00,
2013-08-15 19:57:00,68.4,51.6,30.09,SSW,206,0.0,0.0,55,0.00,CLR,,0.00,WeatherDisplay:10.37,2013-08-16 00:57:00,
2013-08-15 20:01:00,67.9,51.6,30.09,SSW,206,0.0,0.0,56,0.00,CLR,,0.00,WeatherDisplay:10.37,2013-08-16 01:01:00,
2013-08-15 20:04:00,67.6,51.8,30.09,SSW,206,0.0,0.0,57,0.00,CLR,,0.00,WeatherDisplay:10.37,2013-08-16 01:04:00,
2013-08-15 20:05:00,67.5,51.7,30.09,SSW,206,0.0,0.0,57,0.00,CLR,,0.00,WeatherDisplay:10.37,2013-08-16 01:05:00,
2013-08-15 20:06:00,67.4,51.6,30.09,SSW,206,0.0,0.0,57,0.00,CLR,,0.00,WeatherDisplay:10.37,2013-08-16 01:06:00,
2013-08-15 20:07:00,67.4,51.6,30.09,SSW,206,0.0,0.0,57,0.00,CLR,,0.00,WeatherDisplay:10.37,2013-08-16 01:07:00,
2013-08-15 20:10:00,67.1,51.8,30.09,SSW,206,0.0,0.0,58,0.00,CLR,,0.00,WeatherDisplay:10.37,2013-08-16 01:10:00,
2013-08-15 20:11:00,67.0,51.7,30.09,SSW,206,0.0,0.0,58,0.00,CLR,,0.00,WeatherDisplay:10.37,2013-08-16 01:11:00,
2013-08-15 20:12:00,67.0,51.7,30.09,SSW,206,0.0,0.0,58,0.00,CLR,,0.00,WeatherDisplay:10.37,2013-08-16 01:12:00,
2013-08-15 20:16:00,66.4,52.1,30.09,SSW,206,0.0,0.0,60,0.00,CLR,,0.00,WeatherDisplay:10.37,2013-08-16 01:16:00,
2013-08-15 20:17:00,66.4,52.1,30.09,SSW,206,0.0,0.0,60,0.00,CLR,,0.00,WeatherDisplay:10.37,2013-08-16 01:17:00,
2013-08-15 20:18:00,66.2,51.9,30.09,SSW,206,0.0,0.0,60,0.00,CLR,,0.00,WeatherDisplay:10.37,2013-08-16 01:18:00,
2013-08-15 20:20:00,66.1,51.8,30.09,SSW,206,0.0,0.0,60,0.00,CLR,,0.00,WeatherDisplay:10.37,2013-08-16 01:20:00,
2013-08-15 20:22:00,66.0,52.2,30.09,SSW,206,0.0,0.0,61,0.00,CLR,,0.00,WeatherDisplay:10.37,2013-08-16 01:22:00,
2013-08-15 20:23:00,65.9,51.6,30.10,SSW,206,0.0,0.0,60,0.00,CLR,,0.00,WeatherDisplay:10.37,2013-08-16 01:23:00,
2013-08-15 20:24:00,65.8,51.5,30.09,SSW,206,0.0,0.0,60,0.00,CLR,,0.00,WeatherDisplay:10.37,2013-08-16 01:24:00,
2013-08-15 20:25:00,65.5,51.7,30.09,SSW,206,0.0,0.0,61,0.00,CLR,,0.00,WeatherDisplay:10.37,2013-08-16 01:25:00,
2013-08-15 20:27:00,65.5,51.7,30.10,SSW,206,0.0,0.0,61,0.00,CLR,,0.00,WeatherDisplay:10.37,2013-08-16 01:27:00,
2013-08-15 20:29:00,65.3,51.9,30.10,SSW,206,0.0,0.0,62,0.00,CLR,,0.00,WeatherDisplay:10.37,2013-08-16 01:29:00,
2013-08-15 20:33:00,65.1,51.8,30.10,SSW,206,0.0,0.0,62,0.00,CLR,,0.00,WeatherDisplay:10.37,2013-08-16 01:33:00,
2013-08-15 20:34:00,64.9,51.6,30.10,SSW,206,0.0,0.0,62,0.00,CLR,,0.00,WeatherDisplay:10.37,2013-08-16 01:34:00,
2013-08-15 20:36:00,65.0,52.1,30.10,SSW,206,0.0,0.0,63,0.00,CLR,,0.00,WeatherDisplay:10.37,2013-08-16 01:36:00,
2013-08-15 20:37:00,64.8,51.9,30.10,SSW,206,0.0,0.0,63,0.00,CLR,,0.00,WeatherDisplay:10.37,2013-08-16 01:37:00,
2013-08-15 20:39:00,64.6,51.7,30.10,SSW,206,0.0,0.0,63,0.00,CLR,,0.00,WeatherDisplay:10.37,2013-08-16 01:39:00,
2013-08-15 20:40:00,64.6,51.7,30.10,SSW,206,0.0,0.0,63,0.00,CLR,,0.00,WeatherDisplay:10.37,2013-08-16 01:40:00,
2013-08-15 20:42:00,64.5,52.0,30.10,SSW,206,0.0,0.0,64,0.00,CLR,,0.00,WeatherDisplay:10.37,2013-08-16 01:42:00,
2013-08-15 20:44:00,64.3,51.4,30.10,SSW,206,0.0,0.0,63,0.00,CLR,,0.00,WeatherDisplay:10.37,2013-08-16 01:44:00,
2013-08-15 20:45:00,64.3,51.4,30.10,SSW,206,0.0,0.0,63,0.00,CLR,,0.00,WeatherDisplay:10.37,2013-08-16 01:45:00,
2013-08-15 20:47:00,64.1,51.2,30.10,SSW,206,0.0,0.0,63,0.00,CLR,,0.00,WeatherDisplay:10.37,2013-08-16 01:47:00,
2013-08-15 20:50:00,64.0,51.1,30.10,SSW,206,0.0,0.0,63,0.00,CLR,,0.00,WeatherDisplay:10.37,2013-08-16 01:50:00,
2013-08-15 20:52:00,63.9,51.5,30.10,SSW,206,0.0,0.0,64,0.00,CLR,,0.00,WeatherDisplay:10.37,2013-08-16 01:52:00,
2013-08-15 20:53:00,63.9,51.5,30.10,SSW,206,0.0,0.0,64,0.00,CLR,,0.00,WeatherDisplay:10.37,2013-08-16 01:53:00,
2013-08-15 20:55:00,63.8,51.4,30.10,SSW,206,0.0,0.0,64,0.00,CLR,,0.00,WeatherDisplay:10.37,2013-08-16 01:55:00,
2013-08-15 20:56:00,63.7,51.3,30.10,SSW,206,0.0,0.0,64,0.00,CLR,,0.00,WeatherDisplay:10.37,2013-08-16 01:56:00,
2013-08-15 20:58:00,63.6,51.2,30.10,SSW,206,0.0,0.0,64,0.00,CLR,,0.00,WeatherDisplay:10.37,2013-08-16 01:58:00,
2013-08-15 21:00:00,63.6,51.2,30.10,SSW,206,0.0,0.0,64,0.00,CLR,,0.00,WeatherDisplay:10.37,2013-08-16 02:00:00,
2013-08-15 21:01:00,63.4,51.0,30.10,SSW,206,0.0,0.0,64,0.00,CLR,,0.00,WeatherDisplay:10.37,2013-08-16 02:01:00,
2013-08-15 21:03:00,63.4,51.0,30.11,SSW,206,0.0,0.0,64,0.00,CLR,,0.00,WeatherDisplay:10.37,2013-08-16 02:03:00,
2013-08-15 21:05:00,63.2,50.8,30.11,SSW,206,0.0,0.0,64,0.00,CLR,,0.00,WeatherDisplay:10.37,2013-08-16 02:05:00,
2013-08-15 21:06:00,63.2,50.8,30.11,SSW,206,0.0,0.0,64,0.00,CLR,,0.00,WeatherDisplay:10.37,2013-08-16 02:06:00,
2013-08-15 21:08:00,63.1,50.7,30.11,SSW,206,0.0,0.0,64,0.00,CLR,,0.00,WeatherDisplay:10.37,2013-08-16 02:08:00,
2013-08-15 21:09:00,63.0,50.6,30.11,SSW,206,0.0,0.0,64,0.00,CLR,,0.00,WeatherDisplay:10.37,2013-08-16 02:09:00,
2013-08-15 21:10:00,63.0,51.0,30.11,SSW,206,0.0,0.0,65,0.00,CLR,,0.00,WeatherDisplay:10.37,2013-08-16 02:10:00,
2013-08-15 21:11:00,62.9,51.0,30.11,SSW,206,0.0,0.0,65,0.00,CLR,,0.00,WeatherDisplay:10.37,2013-08-16 02:11:00,
2013-08-15 21:13:00,62.8,50.9,30.11,SSW,206,0.0,0.0,65,0.00,CLR,,0.00,WeatherDisplay:10.37,2013-08-16 02:13:00,
2013-08-15 21:14:00,62.9,51.4,30.11,SSW,206,0.0,0.0,66,0.00,CLR,,0.00,WeatherDisplay:10.37,2013-08-16 02:14:00,
2013-08-15 21:15:00,62.8,51.3,30.11,SSW,206,0.0,0.0,66,0.00,CLR,,0.00,WeatherDisplay:10.37,2013-08-16 02:15:00,
2013-08-15 21:16:00,62.7,51.2,30.11,SSW,206,0.0,0.0,66,0.00,CLR,,0.00,WeatherDisplay:10.37,2013-08-16 02:16:00,
2013-08-15 21:17:00,62.6,51.1,30.11,SSW,206,0.0,0.0,66,0.00,CLR,,0.00,WeatherDisplay:10.37,2013-08-16 02:17:00,
2013-08-15 21:18:00,62.6,51.1,30.11,SSW,206,0.0,0.0,66,0.00,CLR,,0.00,WeatherDisplay:10.37,2013-08-16 02:18:00,
2013-08-15 21:20:00,62.4,50.9,30.11,SSW,206,0.0,0.0,66,0.00,CLR,,0.00,WeatherDisplay:10.37,2013-08-16 02:20:00,
2013-08-15 21:21:00,62.5,51.0,30.11,SSW,206,0.0,0.0,66,0.00,CLR,,0.00,WeatherDisplay:10.37,2013-08-16 02:21:00,
2013-08-15 21:22:00,62.4,50.9,30.11,SSW,206,0.0,0.0,66,0.00,CLR,,0.00,WeatherDisplay:10.37,2013-08-16 02:22:00,
2013-08-15 21:24:00,62.3,50.8,30.11,SSW,206,0.0,0.0,66,0.00,CLR,,0.00,WeatherDisplay:10.37,2013-08-16 02:24:00,
2013-08-15 21:25:00,62.3,50.8,30.11,SSW,206,0.0,0.0,66,0.00,CLR,,0.00,WeatherDisplay:10.37,2013-08-16 02:25:00,
2013-08-15 21:26:00,62.3,50.8,30.11,SSW,206,0.0,0.0,66,0.00,CLR,,0.00,WeatherDisplay:10.37,2013-08-16 02:26:00,
2013-08-15 21:27:00,62.1,50.6,30.11,SSW,206,0.0,0.0,66,0.00,CLR,,0.00,WeatherDisplay:10.37,2013-08-16 02:27:00,
2013-08-15 21:29:00,62.2,50.7,30.11,SSW,206,0.0,0.0,66,0.00,CLR,,0.00,WeatherDisplay:10.37,2013-08-16 02:29:00,
2013-08-15 21:30:00,62.0,50.5,30.11,SSW,206,0.0,0.0,66,0.00,CLR,,0.00,WeatherDisplay:10.37,2013-08-16 02:30:00,
2013-08-15 21:31:00,61.9,50.4,30.11,SSW,206,0.0,0.0,66,0.00,CLR,,0.00,WeatherDisplay:10.37,2013-08-16 02:31:00,
2013-08-15 21:32:00,62.0,50.5,30.11,SSW,206,0.0,0.0,66,0.00,CLR,,0.00,WeatherDisplay:10.37,2013-08-16 02:32:00,
2013-08-15 21:34:00,61.9,50.8,30.11,SSW,206,0.0,0.0,67,0.00,CLR,,0.00,WeatherDisplay:10.37,2013-08-16 02:34:00,
2013-08-15 21:35:00,61.8,51.1,30.11,SSW,206,0.0,0.0,68,0.00,CLR,,0.00,WeatherDisplay:10.37,2013-08-16 02:35:00,
2013-08-15 21:36:00,61.8,51.1,30.11,SSW,206,0.0,0.0,68,0.00,CLR,,0.00,WeatherDisplay:10.37,2013-08-16 02:36:00,
2013-08-15 21:37:00,61.8,51.1,30.11,SSW,206,0.0,0.0,68,0.00,CLR,,0.00,WeatherDisplay:10.37,2013-08-16 02:37:00,
2013-08-15 21:39:00,61.7,51.0,30.11,SSW,206,0.0,0.0,68,0.00,CLR,,0.00,WeatherDisplay:10.37,2013-08-16 02:39:00,
2013-08-15 21:43:00,61.5,50.8,30.11,SSW,206,0.0,0.0,68,0.00,CLR,,0.00,WeatherDisplay:10.37,2013-08-16 02:43:00,
2013-08-15 21:44:00,61.5,50.8,30.11,SSW,206,0.0,0.0,68,0.00,CLR,,0.00,WeatherDisplay:10.37,2013-08-16 02:44:00,
2013-08-15 21:48:00,61.4,50.7,30.11,SSW,206,0.0,0.0,68,0.00,CLR,,0.00,WeatherDisplay:10.37,2013-08-16 02:48:00,
2013-08-15 21:49:00,61.4,50.7,30.11,SSW,206,0.0,0.0,68,0.00,CLR,,0.00,WeatherDisplay:10.37,2013-08-16 02:49:00,
2013-08-15 21:50:00,61.2,50.6,30.11,SSW,206,0.0,0.0,68,0.00,CLR,,0.00,WeatherDisplay:10.37,2013-08-16 02:50:00,
2013-08-15 21:53:00,61.3,51.0,30.11,SSW,206,0.0,0.0,69,0.00,CLR,,0.00,WeatherDisplay:10.37,2013-08-16 02:53:00,
2013-08-15 21:54:00,61.1,50.8,30.12,SSW,206,0.0,0.0,69,0.00,CLR,,0.00,WeatherDisplay:10.37,2013-08-16 02:54:00,
2013-08-15 21:55:00,61.0,51.1,30.12,SSW,206,0.0,0.0,70,0.00,CLR,,0.00,WeatherDisplay:10.37,2013-08-16 02:55:00,
2013-08-15 21:58:00,60.9,51.0,30.12,SSW,206,0.0,0.0,70,0.00,CLR,,0.00,WeatherDisplay:10.37,2013-08-16 02:58:00,
2013-08-15 22:00:00,60.9,51.0,30.11,SSW,206,0.0,0.0,70,0.00,CLR,,0.00,WeatherDisplay:10.37,2013-08-16 03:00:00,
2013-08-15 22:03:00,60.9,51.0,30.12,SSW,206,0.0,0.0,70,0.00,CLR,,0.00,WeatherDisplay:10.37,2013-08-16 03:03:00,
2013-08-15 22:04:00,60.8,51.0,30.12,SSW,206,0.0,0.0,70,0.00,CLR,,0.00,WeatherDisplay:10.37,2013-08-16 03:04:00,
2013-08-15 22:05:00,60.7,50.9,30.12,SSW,206,0.0,0.0,70,0.00,CLR,,0.00,WeatherDisplay:10.37,2013-08-16 03:05:00,
2013-08-15 22:06:00,60.7,50.9,30.12,SSW,206,0.0,0.0,70,0.00,CLR,,0.00,WeatherDisplay:10.37,2013-08-16 03:06:00,
2013-08-15 22:08:00,60.7,50.9,30.12,SSW,206,0.0,0.0,70,0.00,CLR,,0.00,WeatherDisplay:10.37,2013-08-16 03:08:00,
2013-08-15 22:09:00,60.6,50.8,30.12,SSW,206,0.0,0.0,70,0.00,CLR,,0.00,WeatherDisplay:10.37,2013-08-16 03:09:00,
2013-08-15 22:10:00,60.5,50.7,30.12,SSW,206,0.0,0.0,70,0.00,CLR,,0.00,WeatherDisplay:10.37,2013-08-16 03:10:00,
2013-08-15 22:11:00,60.5,50.3,30.12,SSW,206,0.0,0.0,69,0.00,CLR,,0.00,WeatherDisplay:10.37,2013-08-16 03:11:00,
2013-08-15 22:13:00,60.3,50.1,30.12,SSW,206,0.0,0.0,69,0.00,CLR,,0.00,WeatherDisplay:10.37,2013-08-16 03:13:00,
2013-08-15 22:14:00,60.4,50.2,30.12,SSW,206,0.0,0.0,69,0.00,CLR,,0.00,WeatherDisplay:10.37,2013-08-16 03:14:00,
2013-08-15 22:15:00,60.3,50.1,30.12,SSW,206,0.0,0.0,69,0.00,CLR,,0.00,WeatherDisplay:10.37,2013-08-16 03:15:00,
2013-08-15 22:16:00,60.3,50.1,30.12,SSW,206,0.0,0.0,69,0.00,CLR,,0.00,WeatherDisplay:10.37,2013-08-16 03:16:00,
2013-08-15 22:18:00,60.1,49.9,30.12,SSW,206,0.0,0.0,69,0.00,CLR,,0.00,WeatherDisplay:10.37,2013-08-16 03:18:00,
2013-08-15 22:19:00,60.1,49.9,30.12,SSW,206,0.0,0.0,69,0.00,CLR,,0.00,WeatherDisplay:10.37,2013-08-16 03:19:00,
2013-08-15 22:20:00,60.1,50.3,30.12,SSW,206,0.0,0.0,70,0.00,CLR,,0.00,WeatherDisplay:10.37,2013-08-16 03:20:00,
2013-08-15 22:21:00,59.9,50.1,30.12,SSW,206,0.0,0.0,70,0.00,CLR,,0.00,WeatherDisplay:10.37,2013-08-16 03:21:00,
2013-08-15 22:23:00,59.9,50.1,30.12,SSW,206,0.0,0.0,70,0.00,CLR,,0.00,WeatherDisplay:10.37,2013-08-16 03:23:00,
2013-08-15 22:24:00,59.8,50.0,30.12,SSW,206,0.0,0.0,70,0.00,CLR,,0.00,WeatherDisplay:10.37,2013-08-16 03:24:00,
2013-08-15 22:25:00,59.7,49.9,30.12,SSW,206,0.0,0.0,70,0.00,CLR,,0.00,WeatherDisplay:10.37,2013-08-16 03:25:00,
2013-08-15 22:26:00,59.7,49.9,30.12,SSW,206,0.0,0.0,70,0.00,CLR,,0.00,WeatherDisplay:10.37,2013-08-16 03:26:00,
2013-08-15 22:29:00,59.5,49.7,30.12,SSW,206,0.0,0.0,70,0.00,CLR,,0.00,WeatherDisplay:10.37,2013-08-16 03:29:00,
2013-08-15 22:30:00,59.5,49.7,30.12,SSW,206,0.0,0.0,70,0.00,CLR,,0.00,WeatherDisplay:10.37,2013-08-16 03:30:00,
2013-08-15 22:31:00,59.4,49.2,30.12,SSW,206,0.0,0.0,69,0.00,CLR,,0.00,WeatherDisplay:10.37,2013-08-16 03:31:00,
2013-08-15 22:32:00,59.4,49.2,30.12,SSW,206,0.0,0.0,69,0.00,CLR,,0.00,WeatherDisplay:10.37,2013-08-16 03:32:00,
2013-08-15 22:34:00,59.3,49.5,30.12,SSW,206,0.0,0.0,70,0.00,CLR,,0.00,WeatherDisplay:10.37,2013-08-16 03:34:00,
2013-08-15 22:35:00,59.2,49.4,30.12,SSW,206,0.0,0.0,70,0.00,CLR,,0.00,WeatherDisplay:10.37,2013-08-16 03:35:00,
2013-08-15 22:36:00,59.1,49.7,30.12,SSW,206,0.0,0.0,71,0.00,CLR,,0.00,WeatherDisplay:10.37,2013-08-16 03:36:00,
2013-08-15 22:37:00,59.1,49.7,30.12,SSW,206,0.0,0.0,71,0.00,CLR,,0.00,WeatherDisplay:10.37,2013-08-16 03:37:00,
2013-08-15 22:39:00,59.0,50.0,30.12,SSW,206,0.0,0.0,72,0.00,CLR,,0.00,WeatherDisplay:10.37,2013-08-16 03:39:00,
2013-08-15 22:40:00,58.9,49.9,30.12,SSW,206,0.0,0.0,72,0.00,CLR,,0.00,WeatherDisplay:10.37,2013-08-16 03:40:00,
2013-08-15 22:41:00,58.8,50.2,30.12,SSW,206,0.0,0.0,73,0.00,CLR,,0.00,WeatherDisplay:10.37,2013-08-16 03:41:00,
2013-08-15 22:42:00,58.8,50.2,30.12,SSW,206,0.0,0.0,73,0.00,CLR,,0.00,WeatherDisplay:10.37,2013-08-16 03:42:00,
2013-08-15 22:44:00,58.7,50.1,30.12,SSW,206,0.0,0.0,73,0.00,CLR,,0.00,WeatherDisplay:10.37,2013-08-16 03:44:00,
2013-08-15 22:46:00,58.7,50.1,30.12,SSW,206,0.0,0.0,73,0.00,CLR,,0.00,WeatherDisplay:10.37,2013-08-16 03:46:00,
2013-08-15 22:47:00,58.6,50.0,30.12,SSW,206,0.0,0.0,73,0.00,CLR,,0.00,WeatherDisplay:10.37,2013-08-16 03:47:00,
2013-08-15 22:49:00,58.5,49.9,30.11,SSW,206,0.0,0.0,73,0.00,CLR,,0.00,WeatherDisplay:10.37,2013-08-16 03:49:00,
2013-08-15 22:51:00,58.5,49.5,30.12,SSW,206,0.0,0.0,72,0.00,CLR,,0.00,WeatherDisplay:10.37,2013-08-16 03:51:00,
2013-08-15 22:52:00,58.5,49.5,30.12,SSW,206,0.0,0.0,72,0.00,CLR,,0.00,WeatherDisplay:10.37,2013-08-16 03:52:00,
2013-08-15 22:55:00,58.3,49.7,30.11,SSW,206,0.0,0.0,73,0.00,CLR,,0.00,WeatherDisplay:10.37,2013-08-16 03:55:00,
2013-08-15 22:56:00,58.3,50.0,30.12,SSW,206,0.0,0.0,74,0.00,CLR,,0.00,WeatherDisplay:10.37,2013-08-16 03:56:00,
2013-08-15 22:57:00,58.2,50.0,30.11,SSW,206,0.0,0.0,74,0.00,CLR,,0.00,WeatherDisplay:10.37,2013-08-16 03:57:00,
2013-08-15 22:58:00,58.2,50.0,30.11,SSW,206,0.0,0.0,74,0.00,CLR,,0.00,WeatherDisplay:10.37,2013-08-16 03:58:00,
2013-08-15 23:00:00,58.0,49.8,30.11,SSW,206,0.0,0.0,74,0.00,CLR,,0.00,WeatherDisplay:10.37,2013-08-16 04:00:00,
2013-08-15 23:01:00,58.1,49.9,30.11,SSW,206,0.0,0.0,74,0.00,CLR,,0.00,WeatherDisplay:10.37,2013-08-16 04:01:00,
2013-08-15 23:02:00,57.9,49.3,30.11,SSW,206,0.0,0.0,73,0.00,CLR,,0.00,WeatherDisplay:10.37,2013-08-16 04:02:00,
2013-08-15 23:06:00,57.8,49.2,30.11,SSW,206,0.0,0.0,73,0.00,CLR,,0.00,WeatherDisplay:10.37,2013-08-16 04:06:00,
2013-08-15 23:07:00,57.7,49.1,30.11,SSW,206,0.0,0.0,73,0.00,CLR,,0.00,WeatherDisplay:10.37,2013-08-16 04:07:00,
2013-08-15 23:11:00,57.4,48.8,30.11,SSW,206,0.0,0.0,73,0.00,CLR,,0.00,WeatherDisplay:10.37,2013-08-16 04:11:00,
2013-08-15 23:12:00,57.4,49.2,30.12,SSW,206,0.0,0.0,74,0.00,CLR,,0.00,WeatherDisplay:10.37,2013-08-16 04:12:00,
2013-08-15 23:16:00,57.3,49.4,30.12,SSW,206,0.0,0.0,75,0.00,CLR,,0.00,WeatherDisplay:10.37,2013-08-16 04:16:00,
2013-08-15 23:17:00,57.3,49.4,30.12,SSW,206,0.0,0.0,75,0.00,CLR,,0.00,WeatherDisplay:10.37,2013-08-16 04:17:00,
2013-08-15 23:21:00,57.1,49.6,30.12,SSW,206,0.0,0.0,76,0.00,CLR,,0.00,WeatherDisplay:10.37,2013-08-16 04:21:00,
2013-08-15 23:22:00,57.0,49.5,30.12,SSW,206,0.0,0.0,76,0.00,CLR,,0.00,WeatherDisplay:10.37,2013-08-16 04:22:00,
2013-08-15 23:27:00,56.8,49.0,30.12,SSW,206,0.0,0.0,75,0.00,CLR,,0.00,WeatherDisplay:10.37,2013-08-16 04:27:00,
2013-08-15 23:32:00,56.6,49.1,30.12,SSW,206,0.0,0.0,76,0.00,CLR,,0.00,WeatherDisplay:10.37,2013-08-16 04:32:00,
2013-08-15 23:33:00,56.5,49.0,30.12,SSW,206,0.0,0.0,76,0.00,CLR,,0.00,WeatherDisplay:10.37,2013-08-16 04:33:00,
2013-08-15 23:37:00,56.4,49.3,30.12,SSW,206,0.0,0.0,77,0.00,CLR,,0.00,WeatherDisplay:10.37,2013-08-16 04:37:00,
2013-08-15 23:38:00,56.3,49.2,30.12,SSW,206,0.0,0.0,77,0.00,CLR,,0.00,WeatherDisplay:10.37,2013-08-16 04:38:00,
2013-08-15 23:42:00,56.1,49.3,30.12,SSW,206,0.0,0.0,78,0.00,CLR,,0.00,WeatherDisplay:10.37,2013-08-16 04:42:00,
2013-08-15 23:43:00,56.2,49.4,30.12,SSW,206,0.0,0.0,78,0.00,CLR,,0.00,WeatherDisplay:10.37,2013-08-16 04:43:00,
2013-08-15 23:47:00,56.0,49.2,30.12,SSW,206,0.0,0.0,78,0.00,CLR,,0.00,WeatherDisplay:10.37,2013-08-16 04:47:00,
2013-08-15 23:48:00,56.0,49.2,30.12,SSW,206,0.0,0.0,78,0.00,CLR,,0.00,WeatherDisplay:10.37,2013-08-16 04:48:00,
2013-08-15 23:52:00,55.8,49.0,30.12,SSW,206,0.0,0.0,78,0.00,CLR,,0.00,WeatherDisplay:10.37,2013-08-16 04:52:00,
2013-08-15 23:53:00,55.9,49.1,30.12,SSW,206,0.0,0.0,78,0.00,CLR,,0.00,WeatherDisplay:10.37,2013-08-16 04:53:00,
2013-08-15 23:54:00,55.8,49.0,30.12,SSW,206,0.0,0.0,78,0.00,CLR,,0.00,WeatherDisplay:10.37,2013-08-16 04:54:00,
2013-08-15 23:57:00,55.8,49.4,30.12,SSW,206,0.0,0.0,79,0.00,CLR,,0.00,WeatherDisplay:10.37,2013-08-16 04:57:00,
2013-08-15 23:58:00,55.7,49.3,30.12,SSW,206,0.0,0.0,79,0.00,CLR,,0.00,WeatherDisplay:10.37,2013-08-16 04:58:00,
2013-08-15 23:59:00,55.6,49.2,30.12,SSW,206,0.0,0.0,79,0.00,CLR,,0.00,WeatherDisplay:10.37,2013-08-16 04:59:00,